GEFSCGP_prec_meanprecacc_192.txt.gz
Total_Precipitation_Accumulation
0.03 0.06 0.06 0.08 0.09 0.11 0.14 0.17 0.20 0.20 0.19 0.23 0.27 0.37 0.52 0.68 0.66 0.71 0.82 0.90 0.88 0.94 1.05 1.35 1.88 2.57 3.05 3.18 3.16 3.22 3.19 3.23 3.26 3.18 3.21 3.43 3.61 3.65 3.59 3.68 3.72 3.57 3.47 3.49
0.04 0.06 0.07 0.08 0.10 0.11 0.18 0.20 0.22 0.24 0.22 0.22 0.32 0.44 0.58 0.68 0.68 0.74 0.87 0.88 0.85 0.85 0.96 1.36 1.79 2.22 2.64 2.95 3.06 3.17 3.11 3.30 3.53 3.83 4.21 4.51 4.71 4.66 4.49 4.42 4.31 4.14 4.02 3.93
0.05 0.04 0.03 0.04 0.08 0.11 0.16 0.15 0.21 0.29 0.30 0.26 0.36 0.64 0.73 0.76 0.86 0.97 1.02 1.04 1.05 0.93 1.03 1.33 1.58 1.92 2.27 2.59 2.81 2.96 3.20 3.63 4.03 4.52 5.22 5.63 5.51 5.17 5.00 4.73 4.62 4.39 4.11 4.01
0.02 0.02 0.02 0.05 0.06 0.09 0.13 0.11 0.16 0.23 0.27 0.30 0.31 0.67 0.92 0.96 1.13 1.29 1.16 1.07 1.07 1.08 1.10 1.20 1.40 1.69 1.95 2.30 2.68 3.00 3.40 3.95 4.53 4.97 5.42 5.71 5.70 5.47 5.24 4.82 4.44 4.06 3.71 3.48
0.03 0.04 0.08 0.12 0.07 0.08 0.09 0.10 0.12 0.17 0.20 0.27 0.31 0.51 0.93 1.13 1.22 1.33 1.19 1.11 0.97 0.92 0.98 1.07 1.17 1.38 1.72 2.15 2.56 2.93 3.32 3.94 4.48 4.97 5.31 5.53 5.59 5.46 5.13 4.51 3.91 3.52 3.20 2.94
0.04 0.05 0.10 0.10 0.07 0.07 0.09 0.09 0.13 0.19 0.22 0.32 0.29 0.48 1.01 1.32 1.33 1.26 1.24 1.22 1.09 0.94 0.92 0.93 1.04 1.19 1.55 1.93 2.41 2.74 3.05 3.70 4.35 4.90 5.27 5.51 5.53 5.25 4.66 4.03 3.49 3.15 2.89 2.62
0.10 0.10 0.10 0.08 0.09 0.09 0.11 0.14 0.28 0.37 0.40 0.41 0.33 0.52 1.01 1.10 1.11 1.19 1.15 1.09 1.06 0.94 0.85 0.87 1.03 1.09 1.36 1.72 2.08 2.43 2.77 3.23 3.71 4.14 4.41 4.60 4.63 4.39 4.05 3.68 3.22 2.84 2.60 2.35
0.21 0.18 0.11 0.07 0.06 0.06 0.09 0.16 0.36 0.48 0.50 0.49 0.53 0.90 1.30 1.17 1.11 1.13 1.12 0.99 0.94 0.94 0.92 0.93 1.05 1.11 1.20 1.43 1.72 2.10 2.43 2.72 2.96 3.15 3.36 3.35 3.30 3.24 3.08 2.76 2.40 2.11 1.85 1.68
0.21 0.20 0.10 0.05 0.03 0.04 0.07 0.13 0.16 0.26 0.30 0.52 0.81 1.09 1.46 1.40 1.37 1.22 1.11 1.03 0.96 0.97 0.94 0.96 1.06 1.10 1.16 1.28 1.48 1.71 1.87 2.06 2.12 2.08 2.10 2.16 2.19 2.18 2.10 1.93 1.67 1.38 1.16 1.03
0.16 0.15 0.11 0.07 0.06 0.05 0.09 0.12 0.16 0.32 0.46 0.64 0.85 1.30 1.79 1.84 1.68 1.39 1.09 0.96 0.84 0.89 0.96 1.02 1.08 1.15 1.20 1.22 1.40 1.50 1.48 1.47 1.50 1.52 1.51 1.49 1.54 1.58 1.57 1.50 1.37 1.20 1.01 0.86
0.15 0.16 0.14 0.11 0.13 0.14 0.14 0.16 0.18 0.30 0.39 0.68 1.00 1.58 1.69 1.86 1.72 1.57 1.40 1.06 0.92 0.93 0.99 1.08 1.07 1.04 1.03 1.02 1.06 1.09 1.13 1.18 1.18 1.16 1.17 1.20 1.16 1.13 1.11 1.14 1.14 1.03 0.90 0.77
0.17 0.17 0.24 0.20 0.17 0.15 0.15 0.16 0.22 0.40 0.48 0.55 0.88 1.63 1.53 1.86 1.85 1.63 1.48 1.17 1.07 1.04 1.04 1.02 0.97 0.88 0.84 0.87 0.90 0.90 0.92 0.95 0.99 1.00 0.98 0.99 0.91 0.86 0.85 0.84 0.84 0.80 0.78 0.75
0.17 0.23 0.41 0.52 0.46 0.30 0.22 0.18 0.20 0.25 0.37 0.51 0.85 1.65 1.67 1.75 1.78 1.52 1.34 1.27 1.25 1.24 1.20 1.10 1.00 0.87 0.81 0.80 0.82 0.77 0.76 0.75 0.72 0.73 0.75 0.79 0.76 0.72 0.73 0.70 0.68 0.72 0.71 0.70
0.14 0.32 0.59 0.93 0.83 0.46 0.34 0.24 0.22 0.27 0.45 0.56 0.78 1.28 1.53 1.63 1.55 1.43 1.33 1.29 1.33 1.33 1.19 1.06 1.01 0.91 0.85 0.80 0.75 0.71 0.67 0.63 0.60 0.57 0.57 0.62 0.63 0.61 0.62 0.64 0.61 0.58 0.56 0.58
0.17 0.34 0.41 0.36 0.30 0.31 0.33 0.29 0.28 0.34 0.41 0.64 0.90 1.18 1.40 1.62 1.65 1.61 1.46 1.34 1.32 1.29 1.23 1.16 1.07 0.97 0.87 0.81 0.73 0.68 0.64 0.56 0.52 0.54 0.56 0.58 0.60 0.58 0.60 0.61 0.59 0.52 0.46 0.44
0.19 0.27 0.35 0.36 0.31 0.32 0.38 0.38 0.36 0.39 0.49 0.68 0.93 1.27 1.54 1.73 1.71 1.59 1.47 1.37 1.38 1.30 1.23 1.16 1.07 0.99 0.89 0.86 0.82 0.76 0.71 0.63 0.60 0.63 0.64 0.63 0.62 0.64 0.63 0.59 0.56 0.50 0.46 0.42
0.24 0.36 0.56 0.54 0.38 0.50 0.79 0.66 0.59 0.60 0.62 0.79 1.04 1.26 1.45 1.61 1.67 1.67 1.55 1.52 1.54 1.43 1.37 1.31 1.20 1.10 1.02 0.94 0.86 0.83 0.78 0.71 0.68 0.67 0.65 0.62 0.59 0.60 0.53 0.48 0.51 0.49 0.47 0.43
0.30 0.46 0.66 0.64 0.73 1.13 1.03 0.60 0.59 0.70 0.63 0.65 0.83 0.94 1.13 1.31 1.38 1.44 1.51 1.59 1.66 1.60 1.52 1.41 1.30 1.22 1.16 1.05 0.97 0.89 0.79 0.72 0.66 0.63 0.58 0.51 0.51 0.56 0.50 0.48 0.50 0.47 0.46 0.47
0.23 0.48 0.77 0.81 1.01 1.13 0.97 0.60 0.52 0.76 0.93 0.70 0.69 0.77 0.89 0.91 1.08 1.36 1.37 1.36 1.49 1.51 1.46 1.38 1.29 1.24 1.18 1.07 0.97 0.86 0.76 0.65 0.58 0.56 0.50 0.45 0.44 0.44 0.44 0.44 0.46 0.48 0.49 0.52
0.23 0.42 0.77 0.94 1.21 1.35 1.03 0.49 0.41 0.72 1.25 0.87 0.81 0.81 0.96 1.03 1.22 1.28 1.14 1.14 1.22 1.28 1.26 1.24 1.21 1.16 1.11 0.98 0.85 0.79 0.75 0.66 0.54 0.47 0.42 0.41 0.41 0.41 0.44 0.46 0.48 0.45 0.49 0.55
0.56 0.65 0.82 1.02 1.29 1.26 0.63 0.34 0.47 1.10 1.28 0.89 0.90 0.94 0.98 1.07 1.09 0.97 0.92 1.07 1.17 1.18 1.18 1.11 1.06 1.02 0.96 0.87 0.77 0.72 0.68 0.59 0.43 0.34 0.33 0.36 0.37 0.38 0.38 0.46 0.49 0.48 0.47 0.51
0.85 0.98 1.03 1.10 1.31 1.32 0.54 0.43 0.75 0.95 0.69 0.73 0.80 0.80 0.84 0.78 0.74 0.80 0.88 1.04 1.12 1.15 1.13 1.03 0.95 0.84 0.75 0.67 0.66 0.64 0.53 0.39 0.30 0.30 0.32 0.34 0.33 0.28 0.29 0.42 0.46 0.46 0.50 0.47
0.91 1.06 1.09 1.17 1.27 0.93 0.52 0.47 0.49 0.54 0.59 0.60 0.65 0.67 0.69 0.70 0.69 0.74 0.87 0.97 1.06 1.02 0.94 0.83 0.73 0.64 0.57 0.56 0.58 0.54 0.40 0.29 0.25 0.31 0.36 0.33 0.29 0.28 0.27 0.34 0.37 0.38 0.45 0.44
1.03 0.94 0.95 1.04 1.05 0.78 0.58 0.45 0.43 0.47 0.49 0.49 0.55 0.64 0.69 0.73 0.74 0.77 0.80 0.84 0.88 0.86 0.76 0.65 0.59 0.57 0.54 0.49 0.45 0.38 0.29 0.27 0.30 0.37 0.37 0.34 0.35 0.33 0.27 0.26 0.25 0.26 0.29 0.31
0.88 0.99 1.14 1.20 1.13 0.93 0.75 0.55 0.48 0.48 0.52 0.56 0.63 0.64 0.63 0.62 0.68 0.70 0.72 0.69 0.67 0.64 0.60 0.53 0.53 0.52 0.48 0.40 0.34 0.28 0.26 0.26 0.34 0.36 0.31 0.29 0.29 0.29 0.27 0.22 0.16 0.14 0.14 0.14
0.56 0.83 1.19 1.31 1.06 0.95 0.88 0.75 0.64 0.68 0.74 0.69 0.62 0.59 0.58 0.54 0.53 0.50 0.48 0.46 0.46 0.45 0.43 0.41 0.40 0.38 0.35 0.31 0.27 0.25 0.22 0.21 0.28 0.32 0.31 0.25 0.23 0.21 0.18 0.18 0.16 0.10 0.09 0.09

GEFSCGP_prec_meanprecacc_198.txt.gz
Total_Precipitation_Accumulation
0.03 0.06 0.06 0.08 0.09 0.11 0.14 0.17 0.20 0.21 0.20 0.24 0.27 0.37 0.52 0.68 0.67 0.72 0.83 0.91 0.90 1.01 1.15 1.41 1.90 2.59 3.07 3.21 3.20 3.26 3.24 3.29 3.34 3.27 3.30 3.50 3.67 3.71 3.65 3.74 3.79 3.64 3.54 3.58
0.04 0.06 0.07 0.08 0.10 0.11 0.18 0.20 0.22 0.25 0.22 0.23 0.32 0.44 0.58 0.68 0.68 0.75 0.89 0.89 0.86 0.88 1.04 1.42 1.81 2.24 2.66 2.98 3.10 3.21 3.16 3.35 3.59 3.92 4.33 4.63 4.81 4.74 4.59 4.53 4.43 4.25 4.12 4.05
0.05 0.04 0.03 0.04 0.08 0.11 0.16 0.15 0.21 0.29 0.30 0.27 0.37 0.65 0.74 0.76 0.86 0.98 1.03 1.06 1.06 0.94 1.05 1.36 1.60 1.94 2.29 2.61 2.84 3.00 3.24 3.68 4.12 4.64 5.36 5.76 5.61 5.26 5.08 4.81 4.70 4.49 4.22 4.12
0.02 0.02 0.02 0.05 0.06 0.09 0.13 0.11 0.17 0.24 0.28 0.31 0.32 0.67 0.92 0.96 1.13 1.29 1.17 1.08 1.08 1.09 1.10 1.21 1.41 1.71 1.96 2.33 2.71 3.03 3.43 4.00 4.59 5.06 5.56 5.84 5.80 5.56 5.31 4.88 4.51 4.15 3.80 3.57
0.03 0.04 0.08 0.12 0.07 0.08 0.09 0.10 0.12 0.17 0.21 0.27 0.31 0.51 0.93 1.14 1.23 1.35 1.20 1.11 0.98 0.93 0.99 1.08 1.18 1.39 1.74 2.17 2.58 2.97 3.36 3.97 4.52 5.03 5.41 5.65 5.70 5.55 5.21 4.57 3.97 3.59 3.26 2.99
0.04 0.05 0.10 0.10 0.07 0.07 0.09 0.09 0.13 0.19 0.23 0.32 0.30 0.48 1.01 1.32 1.37 1.30 1.24 1.22 1.09 0.95 0.93 0.94 1.04 1.20 1.56 1.94 2.42 2.77 3.07 3.73 4.40 4.96 5.34 5.59 5.61 5.31 4.72 4.09 3.55 3.20 2.94 2.67
0.10 0.10 0.10 0.08 0.09 0.09 0.11 0.15 0.29 0.37 0.41 0.42 0.33 0.53 1.01 1.11 1.12 1.20 1.15 1.09 1.06 0.94 0.85 0.88 1.04 1.11 1.38 1.73 2.10 2.45 2.79 3.26 3.74 4.17 4.44 4.64 4.70 4.48 4.12 3.74 3.27 2.90 2.66 2.42
0.21 0.18 0.11 0.07 0.06 0.06 0.10 0.17 0.37 0.49 0.50 0.50 0.53 0.90 1.31 1.17 1.11 1.14 1.13 0.99 0.94 0.95 0.92 0.93 1.06 1.13 1.22 1.45 1.74 2.12 2.45 2.74 2.98 3.17 3.38 3.38 3.35 3.31 3.17 2.84 2.46 2.18 1.92 1.76
0.21 0.20 0.10 0.05 0.03 0.04 0.08 0.14 0.16 0.26 0.31 0.52 0.81 1.09 1.46 1.40 1.38 1.22 1.12 1.03 0.97 0.97 0.94 0.97 1.08 1.13 1.19 1.31 1.51 1.74 1.89 2.08 2.13 2.09 2.12 2.19 2.22 2.22 2.14 2.00 1.75 1.47 1.25 1.11
0.16 0.16 0.12 0.08 0.06 0.06 0.09 0.13 0.17 0.34 0.48 0.66 0.86 1.30 1.80 1.85 1.69 1.40 1.10 0.96 0.85 0.90 0.97 1.03 1.09 1.17 1.22 1.24 1.42 1.53 1.51 1.50 1.53 1.54 1.53 1.50 1.55 1.60 1.60 1.54 1.41 1.24 1.07 0.94
0.15 0.17 0.15 0.12 0.14 0.15 0.15 0.17 0.19 0.32 0.41 0.71 1.03 1.59 1.71 1.87 1.74 1.59 1.42 1.07 0.93 0.94 1.01 1.10 1.10 1.06 1.05 1.04 1.08 1.12 1.15 1.20 1.20 1.17 1.19 1.21 1.18 1.14 1.12 1.16 1.16 1.06 0.94 0.82
0.18 0.18 0.25 0.21 0.18 0.16 0.16 0.18 0.24 0.43 0.51 0.58 0.90 1.65 1.55 1.88 1.87 1.65 1.51 1.19 1.09 1.05 1.07 1.05 1.00 0.90 0.86 0.89 0.92 0.91 0.94 0.97 1.01 1.02 1.00 1.00 0.93 0.87 0.87 0.86 0.86 0.82 0.82 0.79
0.18 0.24 0.42 0.53 0.47 0.31 0.24 0.19 0.23 0.28 0.41 0.54 0.88 1.66 1.68 1.76 1.80 1.54 1.35 1.28 1.26 1.26 1.25 1.16 1.05 0.92 0.83 0.82 0.84 0.78 0.77 0.77 0.74 0.76 0.78 0.81 0.77 0.73 0.75 0.71 0.70 0.73 0.74 0.73
0.15 0.33 0.60 0.96 0.86 0.48 0.35 0.25 0.23 0.29 0.49 0.59 0.80 1.29 1.55 1.64 1.56 1.44 1.35 1.29 1.34 1.35 1.23 1.13 1.05 0.95 0.88 0.82 0.77 0.73 0.69 0.65 0.62 0.60 0.59 0.64 0.65 0.64 0.65 0.66 0.64 0.61 0.60 0.61
0.18 0.35 0.42 0.37 0.31 0.32 0.34 0.30 0.29 0.35 0.43 0.67 0.93 1.20 1.42 1.63 1.66 1.62 1.47 1.35 1.33 1.32 1.29 1.23 1.13 1.01 0.90 0.84 0.74 0.69 0.66 0.58 0.54 0.55 0.58 0.60 0.62 0.61 0.62 0.65 0.62 0.55 0.49 0.46
0.20 0.28 0.36 0.37 0.31 0.32 0.39 0.39 0.38 0.41 0.51 0.69 0.94 1.29 1.55 1.73 1.72 1.60 1.48 1.39 1.41 1.35 1.29 1.23 1.11 1.01 0.92 0.87 0.83 0.77 0.71 0.63 0.60 0.64 0.66 0.65 0.64 0.66 0.65 0.62 0.58 0.53 0.49 0.45
0.24 0.36 0.57 0.55 0.39 0.51 0.80 0.67 0.61 0.63 0.63 0.81 1.05 1.28 1.47 1.62 1.68 1.67 1.57 1.55 1.59 1.48 1.42 1.36 1.24 1.13 1.04 0.96 0.87 0.83 0.78 0.71 0.68 0.68 0.66 0.63 0.61 0.62 0.56 0.51 0.54 0.52 0.50 0.46
0.30 0.47 0.67 0.65 0.74 1.15 1.05 0.61 0.61 0.73 0.65 0.66 0.84 0.96 1.14 1.32 1.39 1.45 1.52 1.61 1.69 1.64 1.57 1.46 1.34 1.25 1.18 1.07 0.98 0.89 0.79 0.72 0.67 0.64 0.58 0.52 0.53 0.59 0.53 0.51 0.53 0.50 0.50 0.50
0.24 0.49 0.80 0.84 1.03 1.15 0.99 0.61 0.53 0.78 0.96 0.72 0.70 0.77 0.90 0.92 1.09 1.37 1.38 1.37 1.51 1.55 1.51 1.42 1.31 1.27 1.19 1.07 0.98 0.87 0.76 0.65 0.58 0.56 0.51 0.45 0.45 0.47 0.47 0.47 0.50 0.52 0.53 0.56
0.25 0.45 0.82 0.98 1.25 1.39 1.07 0.51 0.43 0.75 1.29 0.90 0.83 0.82 0.97 1.05 1.25 1.30 1.15 1.14 1.24 1.29 1.29 1.26 1.23 1.17 1.12 0.99 0.86 0.79 0.76 0.67 0.55 0.48 0.43 0.41 0.42 0.42 0.46 0.49 0.51 0.48 0.52 0.58
0.59 0.68 0.85 1.05 1.33 1.31 0.68 0.38 0.51 1.15 1.33 0.92 0.92 0.96 1.00 1.09 1.11 0.98 0.93 1.07 1.18 1.20 1.20 1.13 1.07 1.03 0.97 0.88 0.77 0.73 0.69 0.60 0.44 0.34 0.34 0.36 0.38 0.38 0.39 0.48 0.51 0.51 0.50 0.53
0.89 1.03 1.08 1.15 1.35 1.37 0.58 0.47 0.83 1.02 0.73 0.76 0.84 0.83 0.86 0.79 0.75 0.81 0.88 1.04 1.13 1.17 1.14 1.04 0.96 0.85 0.77 0.69 0.66 0.65 0.53 0.40 0.30 0.30 0.32 0.34 0.33 0.28 0.30 0.44 0.48 0.48 0.52 0.49
0.94 1.11 1.15 1.24 1.33 0.98 0.56 0.53 0.57 0.60 0.62 0.63 0.70 0.70 0.71 0.72 0.70 0.75 0.87 0.98 1.07 1.04 0.95 0.84 0.74 0.65 0.59 0.58 0.59 0.55 0.42 0.30 0.26 0.32 0.37 0.34 0.30 0.29 0.29 0.35 0.39 0.40 0.46 0.45
1.05 0.98 1.00 1.09 1.09 0.82 0.63 0.52 0.49 0.52 0.53 0.52 0.58 0.66 0.72 0.75 0.75 0.78 0.81 0.85 0.89 0.87 0.78 0.66 0.60 0.58 0.55 0.51 0.47 0.41 0.31 0.29 0.32 0.38 0.38 0.35 0.36 0.34 0.28 0.27 0.26 0.28 0.31 0.33
0.92 1.05 1.19 1.25 1.18 0.98 0.80 0.60 0.56 0.55 0.58 0.60 0.65 0.67 0.65 0.64 0.69 0.71 0.73 0.70 0.69 0.66 0.62 0.54 0.53 0.53 0.49 0.43 0.37 0.31 0.28 0.28 0.36 0.37 0.32 0.30 0.30 0.29 0.28 0.22 0.17 0.16 0.16 0.17
0.63 0.89 1.25 1.36 1.09 0.99 0.93 0.79 0.69 0.72 0.77 0.72 0.64 0.62 0.61 0.56 0.54 0.51 0.49 0.49 0.49 0.47 0.45 0.43 0.42 0.39 0.36 0.32 0.29 0.26 0.23 0.22 0.29 0.33 0.31 0.26 0.24 0.22 0.18 0.18 0.17 0.12 0.11 0.11

GEFSCGP_prec_meanprecacc_204.txt.gz
Total_Precipitation_Accumulation
0.03 0.06 0.06 0.08 0.09 0.11 0.14 0.18 0.20 0.21 0.20 0.25 0.28 0.39 0.55 0.72 0.70 0.74 0.83 0.91 0.90 1.03 1.17 1.45 1.96 2.64 3.11 3.26 3.25 3.32 3.28 3.33 3.38 3.32 3.36 3.57 3.73 3.76 3.70 3.78 3.83 3.69 3.58 3.63
0.04 0.06 0.07 0.08 0.10 0.11 0.18 0.20 0.22 0.25 0.22 0.23 0.33 0.46 0.61 0.71 0.70 0.76 0.89 0.90 0.86 0.89 1.07 1.46 1.85 2.27 2.69 3.02 3.14 3.25 3.19 3.39 3.64 3.99 4.42 4.71 4.88 4.81 4.66 4.59 4.49 4.32 4.17 4.10
0.05 0.04 0.03 0.04 0.08 0.11 0.17 0.15 0.21 0.29 0.31 0.27 0.38 0.66 0.75 0.79 0.89 1.00 1.05 1.08 1.07 0.96 1.08 1.41 1.64 1.97 2.32 2.66 2.89 3.04 3.28 3.73 4.17 4.71 5.45 5.84 5.68 5.33 5.16 4.88 4.78 4.57 4.29 4.17
0.02 0.02 0.02 0.05 0.06 0.09 0.13 0.12 0.17 0.24 0.29 0.32 0.33 0.70 0.95 0.99 1.16 1.32 1.19 1.09 1.09 1.10 1.12 1.26 1.48 1.75 1.99 2.36 2.74 3.06 3.47 4.04 4.64 5.12 5.62 5.92 5.87 5.63 5.39 4.97 4.60 4.23 3.89 3.66
0.03 0.04 0.08 0.12 0.08 0.08 0.09 0.10 0.12 0.17 0.21 0.28 0.32 0.53 0.98 1.18 1.26 1.37 1.22 1.13 0.99 0.93 1.00 1.10 1.24 1.46 1.78 2.20 2.62 3.00 3.39 4.01 4.57 5.08 5.45 5.69 5.76 5.64 5.29 4.66 4.07 3.69 3.36 3.09
0.04 0.05 0.10 0.10 0.07 0.07 0.09 0.10 0.13 0.20 0.23 0.33 0.31 0.51 1.06 1.38 1.42 1.35 1.29 1.25 1.10 0.96 0.94 0.95 1.06 1.26 1.63 1.98 2.46 2.80 3.11 3.77 4.43 4.99 5.37 5.63 5.65 5.37 4.78 4.17 3.65 3.31 3.04 2.76
0.10 0.10 0.10 0.08 0.09 0.09 0.11 0.16 0.31 0.39 0.44 0.45 0.35 0.56 1.07 1.17 1.19 1.27 1.21 1.12 1.10 0.99 0.87 0.89 1.06 1.14 1.43 1.78 2.15 2.48 2.83 3.30 3.77 4.21 4.48 4.67 4.74 4.52 4.15 3.78 3.34 2.99 2.75 2.50
0.22 0.19 0.11 0.07 0.06 0.07 0.10 0.17 0.40 0.54 0.55 0.54 0.56 0.94 1.36 1.21 1.17 1.19 1.17 1.01 0.99 1.00 0.95 0.96 1.08 1.16 1.25 1.49 1.80 2.18 2.50 2.79 3.02 3.21 3.42 3.41 3.38 3.35 3.22 2.88 2.50 2.23 2.00 1.86
0.21 0.20 0.10 0.06 0.03 0.04 0.08 0.14 0.17 0.29 0.35 0.57 0.85 1.13 1.50 1.42 1.41 1.26 1.14 1.05 0.98 0.99 0.96 1.00 1.11 1.15 1.22 1.36 1.56 1.79 1.94 2.11 2.17 2.12 2.15 2.21 2.24 2.24 2.18 2.05 1.79 1.50 1.31 1.21
0.16 0.16 0.12 0.08 0.06 0.06 0.09 0.13 0.18 0.38 0.55 0.75 0.93 1.38 1.85 1.90 1.76 1.50 1.19 1.02 0.87 0.92 0.99 1.05 1.13 1.22 1.26 1.28 1.46 1.56 1.54 1.53 1.56 1.58 1.56 1.53 1.57 1.61 1.63 1.57 1.44 1.27 1.09 0.96
0.15 0.17 0.15 0.12 0.14 0.15 0.15 0.18 0.21 0.35 0.46 0.79 1.12 1.67 1.77 1.95 1.88 1.69 1.51 1.14 0.97 0.96 1.02 1.12 1.13 1.11 1.10 1.09 1.14 1.17 1.20 1.24 1.24 1.21 1.22 1.23 1.20 1.16 1.16 1.20 1.20 1.09 0.95 0.83
0.18 0.18 0.26 0.22 0.18 0.16 0.17 0.20 0.26 0.47 0.56 0.63 0.98 1.73 1.61 1.94 1.99 1.76 1.58 1.25 1.11 1.06 1.11 1.13 1.06 0.94 0.91 0.95 0.98 0.97 0.98 1.00 1.04 1.05 1.03 1.03 0.95 0.91 0.91 0.90 0.90 0.85 0.84 0.81
0.18 0.25 0.44 0.54 0.49 0.32 0.25 0.21 0.24 0.31 0.47 0.61 0.98 1.75 1.74 1.86 1.92 1.64 1.42 1.32 1.28 1.27 1.32 1.30 1.15 0.96 0.88 0.88 0.89 0.82 0.80 0.79 0.76 0.78 0.80 0.84 0.80 0.76 0.78 0.75 0.73 0.76 0.77 0.76
0.15 0.34 0.63 0.99 0.88 0.49 0.36 0.26 0.23 0.31 0.54 0.65 0.86 1.34 1.61 1.72 1.64 1.51 1.42 1.36 1.38 1.37 1.26 1.22 1.16 1.03 0.94 0.87 0.81 0.76 0.72 0.68 0.64 0.62 0.62 0.67 0.68 0.67 0.68 0.69 0.68 0.65 0.64 0.65
0.19 0.36 0.43 0.38 0.32 0.33 0.35 0.31 0.30 0.37 0.46 0.70 0.96 1.24 1.48 1.70 1.72 1.68 1.52 1.41 1.38 1.35 1.32 1.29 1.19 1.08 0.96 0.89 0.79 0.73 0.69 0.60 0.56 0.58 0.61 0.63 0.65 0.63 0.65 0.68 0.66 0.59 0.53 0.49
0.21 0.29 0.36 0.37 0.31 0.33 0.40 0.39 0.38 0.42 0.52 0.72 0.99 1.34 1.60 1.79 1.80 1.69 1.54 1.45 1.46 1.40 1.34 1.28 1.17 1.07 0.98 0.95 0.91 0.82 0.75 0.65 0.62 0.66 0.68 0.66 0.66 0.67 0.67 0.64 0.61 0.57 0.53 0.49
0.24 0.37 0.58 0.56 0.40 0.53 0.83 0.69 0.62 0.65 0.67 0.86 1.12 1.33 1.50 1.69 1.75 1.74 1.65 1.63 1.69 1.55 1.49 1.44 1.31 1.19 1.13 1.06 0.97 0.90 0.83 0.74 0.70 0.70 0.67 0.64 0.62 0.63 0.58 0.53 0.57 0.56 0.55 0.51
0.31 0.48 0.69 0.67 0.78 1.22 1.11 0.65 0.62 0.75 0.69 0.69 0.86 0.97 1.17 1.36 1.44 1.51 1.58 1.68 1.77 1.70 1.64 1.52 1.39 1.32 1.28 1.17 1.08 0.99 0.88 0.78 0.69 0.65 0.60 0.53 0.54 0.59 0.53 0.52 0.56 0.54 0.55 0.56
0.25 0.51 0.84 0.88 1.09 1.23 1.06 0.66 0.56 0.83 1.02 0.76 0.73 0.81 0.93 0.96 1.16 1.44 1.44 1.43 1.57 1.60 1.56 1.49 1.41 1.38 1.30 1.16 1.05 0.93 0.82 0.70 0.62 0.61 0.55 0.48 0.46 0.47 0.49 0.49 0.54 0.57 0.59 0.61
0.26 0.48 0.87 1.04 1.34 1.50 1.16 0.55 0.45 0.81 1.38 0.94 0.85 0.85 1.01 1.09 1.34 1.38 1.20 1.18 1.28 1.33 1.33 1.31 1.27 1.22 1.21 1.10 0.96 0.89 0.83 0.73 0.60 0.52 0.45 0.43 0.44 0.44 0.49 0.52 0.55 0.52 0.57 0.63
0.61 0.71 0.88 1.10 1.47 1.41 0.73 0.40 0.54 1.25 1.42 0.96 0.95 1.00 1.04 1.14 1.18 1.05 0.98 1.11 1.22 1.23 1.22 1.15 1.09 1.06 1.02 0.94 0.83 0.77 0.73 0.63 0.46 0.36 0.35 0.38 0.40 0.41 0.42 0.50 0.55 0.53 0.52 0.56
0.92 1.07 1.14 1.23 1.46 1.44 0.62 0.50 0.88 1.09 0.77 0.80 0.88 0.87 0.90 0.83 0.78 0.85 0.92 1.09 1.19 1.21 1.17 1.07 0.99 0.88 0.81 0.72 0.70 0.68 0.57 0.42 0.32 0.32 0.34 0.36 0.35 0.30 0.31 0.45 0.49 0.50 0.54 0.51
1.00 1.18 1.23 1.35 1.43 1.05 0.62 0.58 0.61 0.63 0.67 0.68 0.75 0.74 0.74 0.75 0.75 0.81 0.93 1.02 1.12 1.07 0.98 0.87 0.77 0.68 0.62 0.60 0.62 0.59 0.45 0.33 0.28 0.34 0.38 0.36 0.32 0.31 0.30 0.36 0.40 0.41 0.48 0.48
1.10 1.03 1.07 1.15 1.14 0.89 0.71 0.57 0.52 0.55 0.58 0.58 0.63 0.69 0.74 0.78 0.80 0.83 0.87 0.90 0.95 0.91 0.81 0.68 0.62 0.60 0.60 0.57 0.50 0.44 0.33 0.31 0.34 0.40 0.40 0.37 0.37 0.35 0.29 0.28 0.27 0.28 0.32 0.35
0.97 1.11 1.27 1.29 1.20 1.02 0.85 0.64 0.58 0.58 0.60 0.63 0.68 0.70 0.69 0.70 0.74 0.76 0.79 0.77 0.75 0.70 0.64 0.56 0.55 0.55 0.55 0.47 0.40 0.33 0.30 0.30 0.37 0.38 0.33 0.30 0.30 0.30 0.29 0.23 0.18 0.17 0.18 0.19
0.68 0.95 1.31 1.39 1.12 1.03 0.96 0.82 0.71 0.75 0.81 0.76 0.69 0.66 0.65 0.62 0.60 0.55 0.54 0.54 0.54 0.50 0.47 0.45 0.43 0.41 0.37 0.34 0.32 0.28 0.25 0.24 0.31 0.34 0.32 0.27 0.25 0.22 0.19 0.19 0.19 0.13 0.12 0.14

GEFSCGP_prec_meanprecacc_210.txt.gz
Total_Precipitation_Accumulation
0.03 0.06 0.06 0.09 0.09 0.12 0.15 0.18 0.21 0.22 0.21 0.26 0.29 0.40 0.57 0.75 0.75 0.78 0.89 0.99 0.97 1.09 1.20 1.48 1.99 2.68 3.17 3.33 3.36 3.49 3.41 3.43 3.44 3.35 3.39 3.59 3.76 3.78 3.73 3.82 3.88 3.73 3.62 3.67
0.05 0.06 0.07 0.08 0.10 0.12 0.18 0.20 0.23 0.25 0.23 0.23 0.33 0.47 0.63 0.74 0.75 0.81 0.94 0.95 0.92 0.95 1.12 1.51 1.89 2.32 2.74 3.09 3.21 3.34 3.28 3.48 3.73 4.04 4.45 4.74 4.90 4.83 4.69 4.63 4.52 4.36 4.21 4.15
0.05 0.04 0.03 0.04 0.09 0.12 0.18 0.16 0.22 0.30 0.31 0.28 0.38 0.68 0.77 0.82 0.93 1.05 1.10 1.15 1.16 1.05 1.19 1.49 1.69 2.01 2.35 2.70 2.93 3.07 3.32 3.77 4.22 4.76 5.50 5.88 5.72 5.36 5.19 4.92 4.82 4.60 4.33 4.23
0.02 0.02 0.03 0.05 0.07 0.10 0.13 0.12 0.17 0.24 0.29 0.33 0.34 0.71 0.96 1.02 1.20 1.37 1.25 1.17 1.20 1.23 1.27 1.39 1.55 1.80 2.04 2.40 2.79 3.11 3.52 4.09 4.68 5.17 5.67 5.95 5.90 5.66 5.42 5.00 4.63 4.27 3.94 3.71
0.03 0.04 0.08 0.12 0.08 0.08 0.09 0.10 0.13 0.17 0.22 0.29 0.33 0.55 1.02 1.25 1.34 1.47 1.34 1.26 1.16 1.18 1.16 1.24 1.34 1.52 1.83 2.25 2.70 3.10 3.51 4.10 4.63 5.14 5.50 5.74 5.80 5.68 5.33 4.70 4.11 3.74 3.43 3.17
0.04 0.05 0.10 0.10 0.07 0.07 0.09 0.10 0.13 0.20 0.23 0.35 0.33 0.54 1.13 1.49 1.57 1.51 1.44 1.40 1.24 1.13 1.10 1.08 1.16 1.32 1.68 2.02 2.51 2.89 3.21 3.88 4.57 5.10 5.46 5.69 5.70 5.42 4.83 4.22 3.69 3.37 3.10 2.82
0.10 0.10 0.10 0.08 0.09 0.09 0.12 0.17 0.32 0.40 0.45 0.48 0.38 0.59 1.13 1.26 1.28 1.36 1.30 1.22 1.18 1.08 0.98 1.00 1.14 1.20 1.49 1.86 2.22 2.57 2.94 3.41 3.91 4.34 4.59 4.73 4.78 4.56 4.19 3.83 3.40 3.05 2.79 2.54
0.22 0.19 0.12 0.08 0.07 0.07 0.11 0.18 0.41 0.55 0.57 0.56 0.59 1.01 1.43 1.28 1.23 1.27 1.29 1.13 1.09 1.10 1.05 1.06 1.18 1.22 1.31 1.57 1.89 2.28 2.59 2.89 3.14 3.32 3.50 3.46 3.42 3.39 3.27 2.94 2.55 2.27 2.04 1.89
0.22 0.21 0.11 0.06 0.04 0.05 0.09 0.15 0.18 0.30 0.36 0.59 0.88 1.18 1.56 1.49 1.49 1.33 1.25 1.18 1.14 1.10 1.07 1.12 1.22 1.23 1.29 1.43 1.66 1.89 2.03 2.22 2.27 2.21 2.23 2.29 2.33 2.32 2.25 2.11 1.85 1.54 1.33 1.23
0.17 0.16 0.12 0.08 0.07 0.06 0.10 0.14 0.20 0.40 0.59 0.79 0.99 1.47 1.96 1.99 1.83 1.57 1.31 1.17 1.04 1.04 1.08 1.14 1.22 1.32 1.36 1.37 1.55 1.66 1.63 1.62 1.67 1.70 1.67 1.63 1.66 1.69 1.69 1.62 1.47 1.29 1.12 0.98
0.16 0.18 0.16 0.12 0.15 0.16 0.16 0.19 0.23 0.38 0.50 0.86 1.19 1.77 1.89 2.05 1.97 1.82 1.68 1.32 1.09 1.06 1.10 1.20 1.21 1.21 1.19 1.17 1.19 1.23 1.28 1.33 1.34 1.31 1.32 1.32 1.26 1.22 1.21 1.25 1.22 1.11 0.98 0.86
0.19 0.19 0.27 0.22 0.19 0.16 0.17 0.21 0.27 0.50 0.60 0.67 1.04 1.80 1.67 2.02 2.09 1.88 1.71 1.42 1.25 1.15 1.17 1.19 1.19 1.11 1.07 1.05 1.05 1.04 1.05 1.07 1.12 1.13 1.11 1.11 1.01 0.97 0.96 0.95 0.94 0.90 0.89 0.85
0.18 0.26 0.44 0.55 0.50 0.32 0.25 0.21 0.24 0.32 0.49 0.64 1.03 1.79 1.80 1.94 2.04 1.76 1.53 1.43 1.38 1.36 1.39 1.39 1.30 1.13 1.01 0.98 0.97 0.90 0.86 0.85 0.82 0.85 0.88 0.94 0.89 0.83 0.82 0.78 0.78 0.81 0.82 0.81
0.15 0.34 0.63 1.00 0.89 0.50 0.37 0.27 0.24 0.32 0.56 0.68 0.92 1.40 1.67 1.79 1.73 1.61 1.55 1.46 1.46 1.46 1.37 1.32 1.28 1.17 1.09 0.97 0.91 0.83 0.77 0.73 0.70 0.68 0.68 0.75 0.78 0.75 0.72 0.73 0.73 0.69 0.68 0.69
0.19 0.37 0.43 0.39 0.33 0.33 0.35 0.31 0.30 0.38 0.48 0.72 0.98 1.27 1.53 1.75 1.78 1.76 1.63 1.52 1.48 1.46 1.42 1.42 1.34 1.20 1.16 1.07 0.97 0.86 0.78 0.70 0.66 0.69 0.72 0.73 0.72 0.67 0.68 0.71 0.70 0.62 0.57 0.54
0.21 0.29 0.37 0.38 0.32 0.33 0.40 0.40 0.39 0.43 0.54 0.74 1.00 1.37 1.64 1.84 1.89 1.78 1.62 1.54 1.59 1.54 1.45 1.38 1.28 1.22 1.18 1.09 1.03 0.92 0.83 0.74 0.73 0.80 0.83 0.79 0.76 0.73 0.70 0.67 0.64 0.59 0.55 0.52
0.25 0.38 0.59 0.57 0.42 0.55 0.85 0.70 0.64 0.67 0.69 0.88 1.14 1.36 1.55 1.78 1.88 1.84 1.71 1.72 1.79 1.69 1.68 1.59 1.42 1.31 1.30 1.18 1.04 0.96 0.89 0.84 0.84 0.83 0.80 0.78 0.77 0.73 0.63 0.56 0.59 0.59 0.58 0.54
0.31 0.49 0.70 0.68 0.80 1.26 1.14 0.67 0.65 0.77 0.72 0.72 0.89 1.03 1.22 1.43 1.51 1.57 1.63 1.74 1.85 1.80 1.75 1.64 1.52 1.44 1.36 1.24 1.13 1.03 0.93 0.86 0.80 0.79 0.75 0.69 0.68 0.68 0.58 0.56 0.59 0.57 0.58 0.59
0.25 0.52 0.85 0.90 1.14 1.30 1.11 0.69 0.59 0.86 1.07 0.79 0.76 0.86 0.98 1.01 1.23 1.51 1.48 1.48 1.63 1.65 1.62 1.55 1.48 1.47 1.37 1.23 1.11 1.02 0.93 0.82 0.73 0.72 0.68 0.60 0.54 0.53 0.53 0.52 0.55 0.59 0.61 0.63
0.27 0.49 0.88 1.06 1.38 1.55 1.21 0.58 0.49 0.86 1.44 0.98 0.88 0.88 1.04 1.13 1.39 1.44 1.24 1.23 1.34 1.39 1.38 1.35 1.31 1.28 1.26 1.16 1.06 1.00 0.93 0.82 0.67 0.58 0.49 0.47 0.48 0.47 0.52 0.55 0.57 0.54 0.59 0.64
0.63 0.72 0.90 1.13 1.53 1.47 0.77 0.42 0.57 1.31 1.49 0.99 0.98 1.03 1.07 1.16 1.21 1.08 1.00 1.16 1.29 1.28 1.26 1.17 1.11 1.09 1.06 0.98 0.87 0.82 0.78 0.68 0.48 0.38 0.37 0.40 0.41 0.42 0.43 0.53 0.57 0.54 0.53 0.57
0.95 1.12 1.21 1.32 1.57 1.53 0.66 0.53 0.92 1.14 0.83 0.85 0.92 0.91 0.93 0.84 0.80 0.86 0.95 1.13 1.22 1.24 1.21 1.09 1.00 0.91 0.83 0.76 0.76 0.72 0.61 0.45 0.34 0.33 0.35 0.37 0.36 0.31 0.32 0.47 0.50 0.50 0.55 0.51
1.04 1.26 1.34 1.45 1.52 1.11 0.65 0.61 0.64 0.69 0.74 0.74 0.79 0.76 0.76 0.77 0.77 0.83 0.95 1.05 1.15 1.11 1.03 0.89 0.79 0.71 0.64 0.66 0.68 0.61 0.47 0.36 0.30 0.35 0.39 0.37 0.32 0.31 0.31 0.38 0.41 0.42 0.49 0.48
1.13 1.07 1.12 1.20 1.17 0.92 0.73 0.60 0.56 0.58 0.63 0.62 0.66 0.71 0.77 0.81 0.83 0.86 0.89 0.93 0.98 0.95 0.84 0.71 0.64 0.63 0.63 0.62 0.53 0.46 0.34 0.32 0.35 0.41 0.41 0.37 0.38 0.36 0.30 0.29 0.27 0.29 0.32 0.35
1.00 1.15 1.31 1.32 1.22 1.04 0.86 0.66 0.60 0.61 0.64 0.67 0.70 0.71 0.72 0.78 0.83 0.85 0.85 0.81 0.80 0.75 0.68 0.58 0.57 0.57 0.57 0.50 0.42 0.35 0.31 0.30 0.38 0.39 0.34 0.31 0.31 0.30 0.29 0.24 0.19 0.18 0.19 0.20
0.71 1.03 1.40 1.43 1.14 1.05 0.99 0.85 0.73 0.77 0.84 0.81 0.73 0.71 0.70 0.68 0.65 0.59 0.58 0.59 0.60 0.59 0.52 0.47 0.45 0.42 0.39 0.36 0.34 0.30 0.27 0.25 0.31 0.35 0.33 0.28 0.26 0.24 0.20 0.21 0.20 0.15 0.14 0.15

GEFSCGP_prec_meanprecacc_216.txt.gz
Total_Precipitation_Accumulation
0.03 0.06 0.06 0.09 0.09 0.12 0.15 0.18 0.21 0.22 0.21 0.26 0.29 0.41 0.58 0.77 0.78 0.82 0.95 1.04 1.02 1.12 1.26 1.55 2.06 2.75 3.23 3.41 3.45 3.61 3.56 3.57 3.57 3.49 3.51 3.70 3.82 3.84 3.79 3.89 3.93 3.79 3.69 3.74
0.05 0.06 0.07 0.08 0.10 0.12 0.18 0.21 0.23 0.25 0.23 0.24 0.33 0.47 0.64 0.75 0.77 0.84 0.98 0.99 0.97 0.99 1.18 1.58 1.99 2.41 2.82 3.17 3.30 3.44 3.43 3.63 3.87 4.19 4.62 4.87 4.99 4.91 4.78 4.72 4.61 4.44 4.32 4.27
0.05 0.04 0.03 0.04 0.09 0.12 0.18 0.16 0.22 0.30 0.32 0.28 0.39 0.68 0.78 0.84 0.95 1.07 1.14 1.20 1.21 1.09 1.25 1.58 1.79 2.10 2.42 2.78 3.02 3.18 3.43 3.88 4.37 4.95 5.69 6.05 5.84 5.47 5.28 5.00 4.90 4.70 4.45 4.37
0.02 0.02 0.03 0.05 0.07 0.10 0.14 0.12 0.17 0.24 0.30 0.33 0.34 0.72 0.97 1.03 1.23 1.39 1.29 1.23 1.26 1.27 1.32 1.47 1.64 1.86 2.09 2.47 2.87 3.20 3.61 4.18 4.81 5.32 5.82 6.11 6.05 5.78 5.51 5.07 4.69 4.33 4.01 3.82
0.03 0.04 0.08 0.12 0.08 0.08 0.09 0.10 0.13 0.18 0.22 0.29 0.33 0.56 1.03 1.26 1.36 1.49 1.36 1.29 1.22 1.24 1.19 1.29 1.41 1.60 1.91 2.33 2.77 3.20 3.59 4.18 4.74 5.25 5.64 5.88 5.92 5.78 5.41 4.76 4.17 3.80 3.48 3.23
0.04 0.05 0.10 0.10 0.07 0.07 0.09 0.10 0.14 0.20 0.24 0.35 0.34 0.54 1.14 1.50 1.58 1.53 1.46 1.42 1.28 1.20 1.17 1.16 1.28 1.43 1.81 2.14 2.60 2.96 3.28 3.96 4.67 5.20 5.56 5.80 5.81 5.53 4.92 4.28 3.75 3.43 3.16 2.90
0.10 0.10 0.10 0.08 0.09 0.09 0.12 0.17 0.32 0.40 0.46 0.48 0.38 0.60 1.13 1.27 1.30 1.37 1.32 1.24 1.20 1.14 1.07 1.11 1.28 1.33 1.61 1.96 2.30 2.63 2.99 3.46 3.97 4.40 4.65 4.82 4.88 4.65 4.28 3.92 3.49 3.14 2.91 2.64
0.22 0.19 0.12 0.08 0.07 0.07 0.11 0.18 0.41 0.56 0.58 0.57 0.60 1.02 1.43 1.29 1.24 1.28 1.30 1.15 1.12 1.16 1.10 1.13 1.27 1.32 1.40 1.64 1.94 2.33 2.62 2.92 3.18 3.36 3.53 3.50 3.49 3.47 3.36 3.04 2.65 2.35 2.10 1.94
0.22 0.21 0.11 0.06 0.04 0.05 0.09 0.16 0.18 0.31 0.37 0.59 0.88 1.18 1.57 1.50 1.49 1.33 1.25 1.20 1.17 1.13 1.11 1.17 1.27 1.29 1.34 1.47 1.70 1.93 2.06 2.25 2.29 2.24 2.27 2.33 2.37 2.37 2.31 2.18 1.91 1.59 1.37 1.26
0.18 0.17 0.13 0.08 0.07 0.07 0.10 0.15 0.21 0.42 0.61 0.80 0.99 1.48 1.98 2.00 1.84 1.58 1.32 1.19 1.07 1.07 1.12 1.18 1.26 1.37 1.41 1.42 1.60 1.72 1.68 1.66 1.71 1.75 1.72 1.68 1.70 1.73 1.73 1.67 1.52 1.33 1.14 1.00
0.16 0.18 0.16 0.12 0.15 0.16 0.16 0.19 0.23 0.39 0.52 0.87 1.20 1.79 1.90 2.06 1.98 1.83 1.70 1.35 1.11 1.08 1.11 1.23 1.25 1.25 1.24 1.22 1.26 1.30 1.35 1.39 1.39 1.36 1.38 1.37 1.30 1.27 1.27 1.31 1.27 1.15 1.02 0.89
0.19 0.19 0.27 0.22 0.19 0.17 0.18 0.21 0.28 0.51 0.61 0.68 1.06 1.82 1.69 2.03 2.11 1.90 1.75 1.45 1.28 1.17 1.19 1.21 1.21 1.14 1.10 1.10 1.12 1.11 1.14 1.15 1.17 1.17 1.17 1.16 1.06 1.02 1.01 0.99 1.00 0.95 0.93 0.89
0.18 0.26 0.45 0.55 0.50 0.33 0.26 0.22 0.25 0.32 0.50 0.65 1.04 1.80 1.82 1.96 2.06 1.80 1.59 1.49 1.43 1.38 1.40 1.40 1.31 1.16 1.03 1.01 1.03 0.98 0.95 0.94 0.88 0.90 0.93 0.99 0.94 0.89 0.88 0.82 0.82 0.86 0.86 0.85
0.15 0.35 0.64 1.01 0.90 0.51 0.37 0.27 0.24 0.33 0.57 0.70 0.94 1.42 1.68 1.81 1.76 1.66 1.60 1.51 1.51 1.49 1.38 1.33 1.29 1.19 1.12 1.01 0.94 0.88 0.85 0.83 0.79 0.75 0.73 0.79 0.84 0.81 0.77 0.76 0.75 0.73 0.74 0.75
0.19 0.37 0.44 0.39 0.33 0.34 0.36 0.32 0.31 0.38 0.48 0.74 0.99 1.28 1.54 1.77 1.82 1.81 1.69 1.58 1.53 1.51 1.46 1.45 1.36 1.23 1.20 1.12 1.01 0.91 0.85 0.81 0.77 0.78 0.78 0.77 0.76 0.71 0.71 0.74 0.73 0.66 0.64 0.60
0.21 0.30 0.37 0.38 0.32 0.34 0.40 0.40 0.39 0.43 0.54 0.74 1.01 1.39 1.65 1.87 1.92 1.82 1.67 1.59 1.66 1.62 1.52 1.42 1.31 1.26 1.24 1.17 1.09 0.96 0.88 0.81 0.80 0.88 0.90 0.85 0.81 0.76 0.72 0.71 0.70 0.65 0.63 0.60
0.25 0.38 0.60 0.57 0.42 0.55 0.85 0.71 0.65 0.68 0.70 0.89 1.15 1.38 1.57 1.80 1.90 1.87 1.75 1.76 1.85 1.75 1.74 1.65 1.47 1.37 1.38 1.25 1.10 1.00 0.93 0.90 0.90 0.90 0.86 0.86 0.85 0.78 0.69 0.63 0.66 0.64 0.63 0.58
0.32 0.49 0.70 0.68 0.81 1.27 1.16 0.68 0.67 0.79 0.74 0.74 0.91 1.05 1.24 1.44 1.53 1.59 1.65 1.76 1.88 1.83 1.79 1.69 1.56 1.48 1.41 1.30 1.18 1.07 0.99 0.91 0.86 0.85 0.81 0.77 0.78 0.77 0.68 0.65 0.65 0.60 0.61 0.61
0.26 0.53 0.85 0.91 1.14 1.31 1.12 0.72 0.61 0.87 1.08 0.81 0.77 0.87 1.00 1.03 1.25 1.53 1.50 1.50 1.64 1.68 1.65 1.58 1.51 1.51 1.41 1.27 1.14 1.05 0.97 0.86 0.77 0.76 0.74 0.66 0.61 0.59 0.57 0.55 0.58 0.60 0.62 0.64
0.28 0.50 0.89 1.07 1.39 1.57 1.23 0.60 0.50 0.87 1.46 1.00 0.90 0.90 1.07 1.15 1.42 1.46 1.25 1.24 1.35 1.41 1.39 1.36 1.32 1.30 1.29 1.19 1.08 1.01 0.95 0.85 0.70 0.60 0.52 0.51 0.51 0.50 0.54 0.56 0.59 0.56 0.60 0.65
0.63 0.73 0.91 1.14 1.54 1.49 0.79 0.43 0.58 1.33 1.51 1.01 1.00 1.05 1.09 1.19 1.24 1.11 1.02 1.17 1.30 1.29 1.27 1.18 1.12 1.10 1.07 1.00 0.89 0.83 0.80 0.70 0.50 0.40 0.39 0.42 0.43 0.44 0.45 0.54 0.57 0.55 0.53 0.57
0.96 1.13 1.22 1.34 1.60 1.56 0.68 0.54 0.94 1.16 0.85 0.86 0.94 0.93 0.94 0.86 0.81 0.88 0.96 1.14 1.23 1.25 1.22 1.10 1.01 0.92 0.85 0.77 0.77 0.73 0.63 0.47 0.36 0.35 0.36 0.38 0.37 0.32 0.34 0.48 0.51 0.51 0.55 0.52
1.05 1.27 1.35 1.47 1.56 1.16 0.66 0.62 0.66 0.70 0.75 0.75 0.80 0.79 0.78 0.79 0.79 0.86 0.97 1.06 1.15 1.11 1.03 0.90 0.79 0.72 0.66 0.68 0.69 0.62 0.49 0.37 0.31 0.36 0.40 0.38 0.33 0.32 0.32 0.39 0.42 0.42 0.49 0.48
1.14 1.08 1.13 1.21 1.20 0.94 0.74 0.62 0.56 0.59 0.64 0.63 0.68 0.75 0.79 0.83 0.85 0.89 0.94 0.95 0.99 0.95 0.84 0.71 0.66 0.65 0.65 0.64 0.54 0.47 0.35 0.33 0.36 0.43 0.42 0.38 0.39 0.37 0.31 0.31 0.29 0.29 0.33 0.35
1.01 1.17 1.33 1.33 1.24 1.05 0.87 0.67 0.61 0.62 0.66 0.69 0.75 0.77 0.75 0.79 0.84 0.87 0.86 0.82 0.80 0.75 0.68 0.59 0.59 0.59 0.59 0.51 0.43 0.37 0.32 0.31 0.39 0.40 0.35 0.32 0.32 0.31 0.30 0.24 0.19 0.18 0.19 0.20
0.74 1.06 1.42 1.44 1.16 1.07 1.00 0.86 0.74 0.79 0.88 0.85 0.77 0.75 0.72 0.69 0.66 0.61 0.59 0.59 0.60 0.59 0.52 0.48 0.46 0.44 0.41 0.37 0.35 0.31 0.27 0.25 0.32 0.36 0.34 0.29 0.27 0.25 0.21 0.22 0.21 0.15 0.15 0.16

GEFSCGP_prec_meanprecacc_222.txt.gz
Total_Precipitation_Accumulation
0.03 0.06 0.06 0.09 0.09 0.12 0.15 0.18 0.22 0.22 0.21 0.26 0.29 0.41 0.58 0.77 0.79 0.85 0.98 1.12 1.07 1.16 1.29 1.59 2.10 2.78 3.27 3.44 3.49 3.66 3.64 3.66 3.66 3.57 3.59 3.76 3.89 3.92 3.88 3.97 4.00 3.84 3.74 3.80
0.05 0.06 0.07 0.08 0.10 0.12 0.18 0.21 0.23 0.26 0.23 0.24 0.33 0.47 0.64 0.76 0.78 0.86 1.00 1.03 1.00 1.02 1.21 1.62 2.02 2.44 2.84 3.20 3.34 3.49 3.49 3.70 3.96 4.30 4.73 4.96 5.06 4.99 4.85 4.78 4.67 4.50 4.36 4.32
0.05 0.04 0.03 0.04 0.09 0.12 0.18 0.16 0.22 0.30 0.32 0.28 0.39 0.69 0.79 0.84 0.96 1.09 1.16 1.23 1.24 1.12 1.28 1.61 1.81 2.12 2.44 2.80 3.05 3.22 3.47 3.94 4.45 5.06 5.82 6.17 5.93 5.53 5.34 5.05 4.96 4.75 4.50 4.43
0.02 0.02 0.03 0.05 0.07 0.10 0.14 0.12 0.17 0.24 0.30 0.33 0.35 0.73 0.98 1.03 1.23 1.41 1.31 1.27 1.30 1.30 1.34 1.48 1.66 1.89 2.12 2.50 2.90 3.26 3.66 4.24 4.90 5.44 5.93 6.22 6.12 5.84 5.57 5.13 4.75 4.38 4.06 3.87
0.03 0.04 0.08 0.12 0.08 0.08 0.09 0.10 0.13 0.18 0.22 0.29 0.34 0.56 1.03 1.27 1.37 1.50 1.37 1.31 1.25 1.26 1.21 1.31 1.45 1.65 1.96 2.36 2.80 3.24 3.64 4.25 4.83 5.34 5.72 5.96 5.99 5.84 5.47 4.81 4.21 3.83 3.51 3.27
0.04 0.05 0.10 0.10 0.07 0.07 0.09 0.10 0.14 0.20 0.24 0.36 0.34 0.55 1.14 1.51 1.59 1.54 1.48 1.43 1.30 1.23 1.19 1.18 1.31 1.50 1.89 2.20 2.64 3.00 3.32 4.01 4.73 5.27 5.64 5.87 5.87 5.59 4.97 4.31 3.78 3.45 3.18 2.92
0.10 0.10 0.10 0.08 0.09 0.09 0.12 0.17 0.32 0.41 0.47 0.50 0.39 0.61 1.14 1.28 1.30 1.38 1.34 1.26 1.24 1.19 1.11 1.13 1.30 1.37 1.68 2.03 2.36 2.68 3.04 3.51 4.03 4.46 4.71 4.89 4.95 4.71 4.31 3.94 3.51 3.16 2.93 2.66
0.22 0.20 0.12 0.08 0.07 0.07 0.11 0.18 0.42 0.56 0.59 0.58 0.61 1.03 1.44 1.30 1.25 1.28 1.32 1.19 1.16 1.19 1.15 1.16 1.30 1.35 1.43 1.69 2.00 2.37 2.66 2.96 3.22 3.41 3.58 3.56 3.56 3.53 3.39 3.06 2.67 2.37 2.12 1.97
0.23 0.21 0.11 0.06 0.04 0.05 0.09 0.16 0.19 0.31 0.38 0.61 0.90 1.20 1.60 1.52 1.52 1.35 1.27 1.23 1.22 1.17 1.14 1.20 1.30 1.33 1.38 1.51 1.74 1.98 2.10 2.29 2.35 2.30 2.32 2.38 2.40 2.40 2.33 2.20 1.94 1.63 1.40 1.29
0.18 0.17 0.13 0.08 0.07 0.07 0.10 0.15 0.21 0.43 0.62 0.82 1.02 1.52 2.01 2.03 1.87 1.61 1.35 1.22 1.10 1.11 1.15 1.21 1.29 1.42 1.45 1.46 1.64 1.77 1.73 1.71 1.75 1.80 1.78 1.72 1.73 1.75 1.75 1.69 1.55 1.36 1.17 1.04
0.16 0.19 0.17 0.13 0.15 0.16 0.16 0.20 0.24 0.41 0.54 0.91 1.25 1.84 1.94 2.10 2.02 1.87 1.75 1.40 1.15 1.12 1.15 1.26 1.28 1.29 1.28 1.28 1.31 1.36 1.40 1.42 1.42 1.40 1.42 1.39 1.33 1.29 1.30 1.34 1.30 1.17 1.05 0.92
0.19 0.20 0.28 0.23 0.20 0.17 0.18 0.22 0.28 0.52 0.63 0.71 1.10 1.86 1.72 2.08 2.18 1.99 1.83 1.52 1.33 1.20 1.22 1.25 1.24 1.18 1.16 1.18 1.19 1.17 1.17 1.17 1.20 1.20 1.21 1.20 1.10 1.06 1.05 1.03 1.03 0.98 0.97 0.93
0.18 0.26 0.45 0.56 0.51 0.34 0.27 0.22 0.25 0.33 0.51 0.68 1.07 1.84 1.85 2.02 2.15 1.91 1.67 1.54 1.48 1.43 1.45 1.45 1.37 1.22 1.14 1.10 1.11 1.02 0.97 0.96 0.91 0.94 0.99 1.05 0.98 0.91 0.90 0.85 0.86 0.90 0.90 0.88
0.15 0.35 0.65 1.02 0.91 0.51 0.38 0.28 0.24 0.33 0.58 0.73 0.98 1.45 1.71 1.85 1.82 1.72 1.66 1.56 1.55 1.52 1.42 1.39 1.35 1.23 1.20 1.08 1.02 0.91 0.86 0.85 0.81 0.78 0.77 0.83 0.87 0.84 0.80 0.79 0.79 0.75 0.76 0.76
0.19 0.38 0.45 0.40 0.33 0.34 0.36 0.32 0.31 0.38 0.49 0.75 1.01 1.31 1.58 1.80 1.86 1.85 1.72 1.61 1.56 1.54 1.49 1.49 1.41 1.26 1.24 1.17 1.07 0.93 0.87 0.84 0.80 0.82 0.81 0.81 0.82 0.76 0.74 0.77 0.76 0.68 0.67 0.62
0.22 0.30 0.38 0.38 0.32 0.34 0.40 0.40 0.39 0.44 0.55 0.75 1.02 1.41 1.68 1.88 1.94 1.85 1.70 1.62 1.68 1.65 1.56 1.46 1.34 1.29 1.28 1.23 1.15 1.00 0.90 0.84 0.84 0.93 0.96 0.92 0.89 0.82 0.75 0.75 0.75 0.70 0.69 0.63
0.26 0.39 0.60 0.58 0.42 0.55 0.86 0.71 0.65 0.69 0.71 0.90 1.17 1.39 1.58 1.81 1.92 1.89 1.77 1.80 1.89 1.80 1.78 1.69 1.51 1.41 1.43 1.32 1.16 1.05 0.97 0.93 0.94 0.95 0.92 0.94 0.92 0.83 0.74 0.71 0.78 0.75 0.71 0.63
0.32 0.50 0.71 0.69 0.81 1.27 1.17 0.69 0.68 0.80 0.75 0.75 0.92 1.05 1.25 1.46 1.54 1.60 1.66 1.78 1.89 1.85 1.82 1.71 1.59 1.52 1.46 1.35 1.23 1.13 1.03 0.96 0.92 0.91 0.87 0.84 0.84 0.83 0.75 0.73 0.73 0.69 0.69 0.69
0.26 0.53 0.86 0.91 1.15 1.31 1.14 0.74 0.62 0.89 1.10 0.82 0.78 0.88 1.01 1.04 1.27 1.55 1.51 1.51 1.65 1.68 1.66 1.60 1.53 1.53 1.43 1.30 1.19 1.11 1.03 0.92 0.82 0.81 0.80 0.73 0.69 0.65 0.61 0.59 0.62 0.65 0.68 0.69
0.28 0.50 0.90 1.08 1.40 1.58 1.26 0.63 0.52 0.88 1.49 1.01 0.91 0.91 1.08 1.17 1.44 1.48 1.26 1.25 1.36 1.42 1.41 1.37 1.33 1.31 1.31 1.21 1.11 1.07 1.01 0.90 0.74 0.65 0.59 0.57 0.58 0.56 0.57 0.58 0.60 0.57 0.62 0.66
0.64 0.73 0.92 1.16 1.56 1.51 0.82 0.47 0.60 1.36 1.54 1.02 1.01 1.06 1.11 1.21 1.26 1.12 1.03 1.18 1.30 1.31 1.29 1.19 1.13 1.11 1.09 1.02 0.92 0.88 0.84 0.73 0.54 0.44 0.43 0.47 0.47 0.47 0.47 0.55 0.58 0.56 0.55 0.59
0.96 1.13 1.24 1.36 1.64 1.60 0.72 0.59 0.97 1.19 0.86 0.87 0.94 0.94 0.96 0.87 0.83 0.89 0.97 1.15 1.24 1.26 1.23 1.11 1.02 0.93 0.87 0.80 0.82 0.79 0.66 0.49 0.38 0.38 0.38 0.41 0.40 0.34 0.36 0.49 0.51 0.51 0.56 0.52
1.05 1.27 1.36 1.48 1.58 1.19 0.70 0.65 0.68 0.72 0.77 0.76 0.81 0.80 0.79 0.79 0.79 0.87 0.99 1.07 1.16 1.11 1.04 0.91 0.80 0.73 0.67 0.70 0.73 0.65 0.51 0.39 0.33 0.38 0.41 0.39 0.36 0.34 0.34 0.40 0.43 0.42 0.49 0.49
1.14 1.08 1.13 1.21 1.21 0.96 0.76 0.63 0.58 0.61 0.66 0.65 0.70 0.76 0.80 0.84 0.86 0.91 0.95 0.96 0.99 0.95 0.85 0.72 0.66 0.65 0.66 0.65 0.56 0.49 0.36 0.34 0.37 0.44 0.43 0.40 0.40 0.39 0.32 0.32 0.29 0.29 0.33 0.36
1.02 1.17 1.34 1.34 1.24 1.06 0.89 0.69 0.63 0.64 0.68 0.72 0.77 0.78 0.75 0.80 0.85 0.88 0.87 0.83 0.81 0.76 0.69 0.60 0.60 0.60 0.59 0.52 0.44 0.38 0.33 0.32 0.40 0.41 0.36 0.33 0.33 0.32 0.31 0.25 0.20 0.19 0.20 0.21
0.75 1.07 1.44 1.46 1.18 1.09 1.02 0.89 0.77 0.82 0.91 0.87 0.79 0.76 0.72 0.70 0.66 0.61 0.60 0.60 0.61 0.59 0.53 0.49 0.48 0.45 0.42 0.38 0.35 0.31 0.28 0.26 0.33 0.37 0.35 0.30 0.28 0.26 0.22 0.22 0.21 0.16 0.15 0.16

GEFSCGP_prec_meanprecacc_228.txt.gz
Total_Precipitation_Accumulation
0.03 0.06 0.06 0.09 0.09 0.12 0.15 0.18 0.22 0.22 0.21 0.26 0.29 0.42 0.59 0.78 0.80 0.87 1.01 1.14 1.09 1.17 1.31 1.62 2.15 2.84 3.31 3.48 3.53 3.70 3.69 3.73 3.76 3.68 3.69 3.87 4.00 4.03 4.00 4.12 4.17 3.99 3.89 3.93
0.05 0.07 0.07 0.08 0.10 0.12 0.18 0.21 0.23 0.26 0.23 0.24 0.34 0.49 0.65 0.76 0.79 0.88 1.02 1.06 1.04 1.04 1.23 1.66 2.08 2.52 2.90 3.25 3.40 3.55 3.55 3.77 4.03 4.37 4.80 5.05 5.16 5.08 4.92 4.85 4.76 4.62 4.50 4.44
0.06 0.05 0.04 0.04 0.09 0.12 0.18 0.16 0.22 0.30 0.32 0.28 0.40 0.70 0.80 0.86 0.97 1.10 1.18 1.28 1.30 1.16 1.31 1.64 1.85 2.18 2.50 2.86 3.12 3.28 3.54 4.01 4.53 5.15 5.90 6.25 6.01 5.61 5.41 5.10 5.03 4.83 4.59 4.50
0.02 0.02 0.03 0.05 0.07 0.10 0.14 0.12 0.17 0.24 0.31 0.35 0.36 0.75 1.00 1.05 1.24 1.42 1.34 1.31 1.35 1.34 1.37 1.51 1.68 1.92 2.15 2.55 2.97 3.34 3.75 4.32 4.99 5.54 6.03 6.30 6.20 5.91 5.64 5.20 4.81 4.45 4.12 3.93
0.03 0.04 0.08 0.12 0.08 0.08 0.09 0.10 0.13 0.18 0.22 0.32 0.36 0.59 1.07 1.30 1.39 1.53 1.40 1.35 1.30 1.31 1.25 1.34 1.46 1.67 2.00 2.40 2.86 3.32 3.74 4.35 4.91 5.42 5.80 6.03 6.06 5.93 5.56 4.89 4.29 3.90 3.57 3.33
0.04 0.05 0.10 0.10 0.07 0.07 0.09 0.10 0.14 0.20 0.25 0.39 0.36 0.58 1.19 1.55 1.62 1.57 1.52 1.48 1.35 1.26 1.25 1.22 1.34 1.54 1.96 2.27 2.71 3.08 3.40 4.10 4.81 5.34 5.71 5.94 5.94 5.67 5.06 4.40 3.86 3.53 3.25 2.98
0.12 0.10 0.10 0.08 0.09 0.09 0.12 0.18 0.33 0.43 0.50 0.53 0.40 0.63 1.18 1.31 1.34 1.42 1.38 1.31 1.30 1.27 1.20 1.20 1.36 1.43 1.80 2.15 2.46 2.78 3.13 3.58 4.07 4.52 4.78 4.95 5.03 4.80 4.40 4.03 3.58 3.22 2.98 2.71
0.23 0.20 0.12 0.08 0.07 0.07 0.11 0.19 0.44 0.61 0.65 0.62 0.63 1.08 1.50 1.33 1.29 1.32 1.35 1.23 1.22 1.26 1.23 1.23 1.37 1.43 1.53 1.82 2.13 2.48 2.76 3.02 3.27 3.47 3.66 3.63 3.63 3.60 3.46 3.15 2.74 2.43 2.18 2.02
0.24 0.22 0.11 0.06 0.04 0.05 0.10 0.16 0.19 0.32 0.39 0.63 0.93 1.25 1.66 1.57 1.56 1.39 1.31 1.28 1.26 1.23 1.22 1.27 1.38 1.40 1.45 1.59 1.87 2.10 2.18 2.36 2.41 2.37 2.40 2.45 2.47 2.47 2.41 2.28 2.02 1.70 1.46 1.35
0.18 0.17 0.13 0.08 0.07 0.07 0.10 0.15 0.22 0.45 0.65 0.85 1.05 1.56 2.07 2.07 1.90 1.65 1.40 1.28 1.16 1.16 1.22 1.27 1.34 1.47 1.52 1.53 1.72 1.84 1.79 1.77 1.82 1.87 1.85 1.78 1.81 1.83 1.83 1.76 1.60 1.41 1.23 1.10
0.17 0.19 0.17 0.13 0.16 0.16 0.16 0.20 0.25 0.43 0.57 0.94 1.30 1.91 1.99 2.13 2.05 1.90 1.79 1.46 1.24 1.23 1.25 1.33 1.32 1.33 1.35 1.36 1.37 1.42 1.45 1.49 1.48 1.47 1.49 1.46 1.40 1.37 1.37 1.40 1.36 1.22 1.10 0.98
0.19 0.20 0.29 0.24 0.20 0.17 0.18 0.22 0.29 0.54 0.65 0.74 1.16 1.97 1.76 2.10 2.20 2.03 1.88 1.57 1.42 1.32 1.33 1.31 1.28 1.21 1.22 1.26 1.26 1.21 1.23 1.24 1.26 1.27 1.27 1.28 1.17 1.13 1.12 1.08 1.08 1.04 1.02 0.97
0.19 0.27 0.47 0.57 0.52 0.34 0.27 0.23 0.25 0.33 0.53 0.71 1.12 1.91 1.88 2.05 2.19 1.96 1.74 1.60 1.57 1.56 1.53 1.51 1.42 1.26 1.20 1.19 1.19 1.08 1.03 1.02 0.97 1.00 1.06 1.13 1.07 0.99 0.97 0.91 0.91 0.95 0.95 0.93
0.16 0.36 0.68 1.04 0.92 0.52 0.38 0.28 0.25 0.33 0.59 0.75 1.00 1.48 1.74 1.89 1.85 1.76 1.71 1.64 1.63 1.61 1.50 1.47 1.41 1.29 1.28 1.17 1.09 0.97 0.92 0.92 0.89 0.85 0.84 0.90 0.94 0.90 0.85 0.84 0.84 0.81 0.80 0.80
0.20 0.39 0.46 0.41 0.34 0.34 0.36 0.32 0.31 0.38 0.50 0.77 1.04 1.34 1.61 1.85 1.89 1.88 1.76 1.66 1.61 1.58 1.54 1.54 1.47 1.32 1.31 1.26 1.14 0.99 0.91 0.90 0.89 0.90 0.88 0.86 0.86 0.80 0.79 0.82 0.82 0.74 0.71 0.65
0.22 0.32 0.39 0.39 0.33 0.34 0.41 0.41 0.40 0.44 0.55 0.76 1.04 1.43 1.73 1.95 1.97 1.87 1.72 1.65 1.71 1.67 1.59 1.49 1.39 1.34 1.34 1.30 1.21 1.04 0.95 0.88 0.89 0.99 1.01 0.96 0.93 0.87 0.81 0.82 0.83 0.76 0.74 0.68
0.26 0.40 0.62 0.59 0.43 0.56 0.87 0.72 0.66 0.70 0.72 0.91 1.19 1.43 1.64 1.85 1.94 1.91 1.79 1.82 1.91 1.82 1.80 1.71 1.54 1.45 1.48 1.38 1.22 1.10 1.03 0.98 0.98 0.98 0.95 0.97 0.95 0.87 0.80 0.77 0.85 0.83 0.79 0.69
0.33 0.51 0.72 0.70 0.82 1.29 1.19 0.70 0.69 0.82 0.77 0.77 0.94 1.07 1.28 1.48 1.56 1.61 1.67 1.79 1.91 1.87 1.83 1.73 1.61 1.55 1.50 1.42 1.32 1.21 1.09 1.00 0.97 0.95 0.90 0.87 0.86 0.86 0.80 0.78 0.81 0.79 0.78 0.75
0.27 0.54 0.87 0.93 1.17 1.33 1.17 0.75 0.63 0.91 1.13 0.83 0.79 0.90 1.02 1.05 1.29 1.57 1.53 1.52 1.66 1.70 1.68 1.62 1.56 1.57 1.47 1.36 1.28 1.18 1.08 0.96 0.86 0.84 0.83 0.76 0.71 0.68 0.65 0.64 0.68 0.75 0.76 0.75
0.28 0.50 0.91 1.10 1.43 1.61 1.28 0.64 0.53 0.90 1.52 1.03 0.92 0.93 1.10 1.18 1.48 1.52 1.27 1.25 1.37 1.44 1.43 1.39 1.35 1.35 1.35 1.26 1.18 1.16 1.08 0.95 0.78 0.68 0.62 0.59 0.61 0.58 0.59 0.62 0.65 0.62 0.66 0.70
0.64 0.74 0.93 1.17 1.58 1.53 0.84 0.49 0.61 1.39 1.59 1.04 1.02 1.07 1.13 1.23 1.28 1.13 1.04 1.19 1.32 1.33 1.31 1.21 1.16 1.14 1.13 1.06 0.98 0.96 0.92 0.80 0.59 0.48 0.46 0.49 0.49 0.49 0.49 0.58 0.62 0.60 0.59 0.63
0.97 1.14 1.24 1.37 1.66 1.63 0.74 0.61 0.99 1.22 0.89 0.88 0.95 0.95 0.97 0.88 0.83 0.90 0.99 1.17 1.27 1.29 1.24 1.13 1.05 0.96 0.90 0.84 0.87 0.85 0.72 0.55 0.44 0.43 0.42 0.43 0.42 0.36 0.37 0.51 0.55 0.55 0.61 0.58
1.06 1.28 1.37 1.49 1.60 1.21 0.71 0.68 0.71 0.74 0.78 0.76 0.82 0.80 0.80 0.80 0.80 0.88 1.00 1.09 1.19 1.15 1.06 0.94 0.84 0.76 0.70 0.74 0.78 0.71 0.56 0.43 0.39 0.43 0.47 0.43 0.38 0.36 0.35 0.42 0.45 0.46 0.54 0.52
1.14 1.09 1.14 1.22 1.22 0.98 0.78 0.65 0.60 0.63 0.67 0.66 0.71 0.77 0.81 0.85 0.87 0.93 0.98 0.98 1.02 0.98 0.87 0.75 0.71 0.68 0.69 0.68 0.59 0.52 0.40 0.36 0.40 0.48 0.49 0.45 0.43 0.40 0.33 0.33 0.31 0.31 0.35 0.37
1.02 1.18 1.35 1.36 1.26 1.08 0.90 0.71 0.65 0.66 0.69 0.72 0.77 0.78 0.75 0.80 0.87 0.93 0.93 0.86 0.83 0.78 0.71 0.62 0.65 0.64 0.61 0.53 0.47 0.40 0.35 0.34 0.44 0.46 0.42 0.38 0.36 0.34 0.32 0.26 0.21 0.20 0.21 0.22
0.76 1.08 1.46 1.48 1.20 1.11 1.04 0.91 0.79 0.83 0.91 0.88 0.80 0.76 0.72 0.70 0.68 0.65 0.64 0.63 0.63 0.62 0.55 0.51 0.51 0.49 0.44 0.40 0.38 0.33 0.29 0.28 0.37 0.40 0.38 0.32 0.30 0.28 0.24 0.24 0.22 0.17 0.16 0.18

GEFSCGP_prec_meanprecacc_234.txt.gz
Total_Precipitation_Accumulation
0.03 0.06 0.06 0.09 0.09 0.12 0.15 0.18 0.22 0.23 0.22 0.26 0.32 0.48 0.61 0.80 0.83 0.91 1.04 1.18 1.14 1.23 1.38 1.71 2.22 2.90 3.37 3.57 3.65 3.79 3.75 3.77 3.78 3.70 3.72 3.93 4.08 4.09 4.06 4.20 4.25 4.06 3.95 4.02
0.05 0.07 0.07 0.08 0.10 0.12 0.19 0.21 0.23 0.26 0.24 0.25 0.35 0.52 0.68 0.79 0.82 0.91 1.04 1.09 1.08 1.08 1.31 1.75 2.16 2.61 2.97 3.33 3.49 3.63 3.60 3.81 4.06 4.40 4.84 5.10 5.22 5.15 4.99 4.91 4.82 4.67 4.56 4.58
0.06 0.05 0.04 0.04 0.09 0.12 0.18 0.16 0.22 0.30 0.33 0.31 0.42 0.73 0.82 0.89 1.01 1.14 1.21 1.31 1.33 1.19 1.35 1.71 1.93 2.30 2.59 2.93 3.19 3.35 3.59 4.06 4.58 5.21 5.98 6.32 6.07 5.69 5.47 5.15 5.08 4.89 4.67 4.62
0.02 0.02 0.03 0.05 0.07 0.10 0.14 0.12 0.17 0.24 0.31 0.37 0.39 0.79 1.04 1.10 1.31 1.47 1.36 1.34 1.37 1.37 1.41 1.58 1.80 2.05 2.24 2.61 3.04 3.41 3.82 4.41 5.07 5.62 6.12 6.36 6.25 5.98 5.70 5.25 4.87 4.51 4.20 4.01
0.03 0.04 0.08 0.12 0.08 0.08 0.09 0.10 0.13 0.18 0.23 0.33 0.39 0.63 1.13 1.37 1.46 1.58 1.44 1.38 1.33 1.35 1.32 1.44 1.62 1.85 2.13 2.51 2.94 3.40 3.85 4.46 5.00 5.52 5.89 6.11 6.13 5.99 5.61 4.94 4.33 3.96 3.63 3.39
0.04 0.05 0.10 0.10 0.07 0.08 0.10 0.10 0.14 0.20 0.25 0.41 0.41 0.64 1.26 1.63 1.70 1.64 1.57 1.53 1.42 1.42 1.46 1.45 1.52 1.69 2.11 2.44 2.86 3.19 3.55 4.22 4.92 5.44 5.78 6.02 6.00 5.72 5.10 4.43 3.89 3.56 3.29 3.03
0.12 0.10 0.10 0.09 0.09 0.09 0.12 0.18 0.34 0.44 0.51 0.54 0.43 0.68 1.23 1.37 1.39 1.46 1.40 1.35 1.38 1.39 1.38 1.39 1.57 1.69 2.15 2.44 2.62 2.90 3.24 3.70 4.20 4.62 4.87 5.02 5.07 4.83 4.43 4.06 3.60 3.25 3.02 2.76
0.24 0.20 0.12 0.08 0.07 0.07 0.11 0.19 0.45 0.62 0.67 0.64 0.67 1.15 1.56 1.39 1.35 1.35 1.37 1.25 1.25 1.33 1.32 1.34 1.55 1.72 1.81 2.01 2.28 2.60 2.86 3.14 3.38 3.56 3.73 3.69 3.66 3.62 3.48 3.17 2.76 2.45 2.21 2.06
0.24 0.22 0.11 0.06 0.04 0.05 0.10 0.16 0.19 0.33 0.40 0.65 0.96 1.29 1.71 1.64 1.63 1.44 1.35 1.31 1.30 1.27 1.29 1.37 1.53 1.61 1.60 1.69 2.00 2.21 2.28 2.45 2.49 2.45 2.45 2.48 2.50 2.49 2.43 2.31 2.04 1.72 1.49 1.39
0.18 0.18 0.13 0.08 0.07 0.07 0.11 0.15 0.22 0.45 0.66 0.87 1.07 1.59 2.10 2.11 1.95 1.71 1.47 1.33 1.19 1.19 1.26 1.33 1.44 1.57 1.59 1.60 1.80 1.92 1.85 1.82 1.88 1.94 1.89 1.81 1.83 1.85 1.86 1.80 1.63 1.44 1.27 1.15
0.17 0.20 0.18 0.13 0.16 0.16 0.16 0.20 0.25 0.43 0.57 0.96 1.33 1.94 2.02 2.16 2.08 1.94 1.84 1.49 1.28 1.26 1.30 1.39 1.37 1.38 1.40 1.41 1.41 1.46 1.49 1.52 1.52 1.50 1.51 1.48 1.42 1.40 1.41 1.44 1.40 1.26 1.15 1.03
0.19 0.22 0.30 0.24 0.20 0.17 0.18 0.22 0.30 0.55 0.66 0.75 1.17 1.98 1.77 2.12 2.23 2.09 1.92 1.60 1.45 1.37 1.40 1.42 1.36 1.26 1.27 1.34 1.31 1.25 1.26 1.27 1.28 1.30 1.30 1.30 1.20 1.16 1.15 1.13 1.13 1.08 1.06 1.01
0.19 0.29 0.48 0.58 0.52 0.35 0.28 0.24 0.26 0.34 0.54 0.72 1.13 1.92 1.90 2.08 2.27 2.05 1.81 1.64 1.59 1.59 1.59 1.58 1.47 1.29 1.23 1.26 1.27 1.12 1.06 1.06 1.00 1.03 1.09 1.17 1.10 1.02 1.00 0.96 0.95 1.00 0.99 0.96
0.16 0.37 0.69 1.06 0.94 0.52 0.39 0.29 0.25 0.34 0.60 0.75 1.02 1.50 1.75 1.91 1.93 1.82 1.75 1.67 1.66 1.63 1.55 1.52 1.46 1.32 1.30 1.23 1.19 1.02 0.95 0.96 0.93 0.88 0.88 0.95 0.99 0.96 0.91 0.90 0.89 0.85 0.83 0.83
0.21 0.40 0.47 0.42 0.34 0.34 0.36 0.33 0.31 0.39 0.50 0.78 1.05 1.36 1.63 1.90 1.97 1.93 1.78 1.68 1.62 1.59 1.55 1.59 1.53 1.35 1.34 1.31 1.24 1.06 0.95 0.94 0.92 0.93 0.91 0.90 0.91 0.86 0.85 0.88 0.86 0.77 0.74 0.68
0.23 0.32 0.39 0.39 0.33 0.34 0.41 0.41 0.40 0.45 0.56 0.77 1.05 1.45 1.75 2.02 2.02 1.90 1.74 1.67 1.72 1.69 1.61 1.52 1.43 1.37 1.38 1.36 1.28 1.12 1.01 0.93 0.92 1.01 1.04 0.98 0.97 0.91 0.86 0.86 0.85 0.78 0.77 0.71
0.27 0.41 0.62 0.60 0.43 0.56 0.88 0.73 0.67 0.71 0.73 0.92 1.20 1.44 1.64 1.86 1.96 1.93 1.80 1.83 1.92 1.83 1.82 1.72 1.56 1.48 1.52 1.45 1.28 1.18 1.07 1.01 0.99 1.00 0.97 0.99 0.99 0.91 0.83 0.79 0.87 0.85 0.82 0.73
0.34 0.52 0.73 0.71 0.82 1.31 1.21 0.72 0.71 0.83 0.78 0.78 0.94 1.07 1.28 1.49 1.57 1.62 1.68 1.80 1.92 1.88 1.84 1.73 1.62 1.57 1.53 1.47 1.38 1.28 1.14 1.03 0.98 0.96 0.91 0.89 0.89 0.90 0.83 0.81 0.84 0.83 0.83 0.81
0.27 0.54 0.88 0.95 1.19 1.36 1.19 0.80 0.66 0.92 1.14 0.84 0.80 0.90 1.03 1.06 1.29 1.58 1.53 1.52 1.67 1.71 1.69 1.63 1.57 1.59 1.50 1.41 1.33 1.23 1.11 0.98 0.87 0.86 0.85 0.78 0.73 0.70 0.68 0.68 0.71 0.79 0.82 0.82
0.28 0.51 0.92 1.11 1.44 1.65 1.31 0.65 0.54 0.91 1.54 1.03 0.93 0.94 1.10 1.19 1.48 1.52 1.28 1.26 1.38 1.45 1.45 1.41 1.37 1.37 1.38 1.30 1.23 1.20 1.11 0.97 0.80 0.69 0.64 0.62 0.63 0.61 0.62 0.65 0.69 0.69 0.75 0.77
0.64 0.74 0.94 1.18 1.59 1.55 0.86 0.50 0.62 1.40 1.61 1.05 1.03 1.08 1.13 1.23 1.28 1.13 1.04 1.20 1.34 1.35 1.32 1.22 1.17 1.16 1.15 1.09 1.01 1.00 0.95 0.84 0.62 0.51 0.49 0.52 0.52 0.51 0.51 0.60 0.65 0.65 0.64 0.68
0.97 1.15 1.25 1.38 1.68 1.66 0.76 0.63 1.01 1.24 0.90 0.89 0.96 0.95 0.97 0.89 0.83 0.90 0.99 1.18 1.29 1.31 1.27 1.14 1.06 0.97 0.91 0.85 0.89 0.88 0.74 0.57 0.46 0.44 0.44 0.45 0.44 0.38 0.39 0.53 0.56 0.57 0.63 0.60
1.06 1.29 1.38 1.51 1.63 1.24 0.74 0.71 0.73 0.76 0.80 0.77 0.82 0.81 0.80 0.81 0.80 0.88 1.00 1.10 1.21 1.17 1.10 0.96 0.85 0.77 0.71 0.75 0.80 0.74 0.58 0.45 0.40 0.45 0.48 0.44 0.39 0.37 0.36 0.42 0.45 0.47 0.55 0.53
1.15 1.09 1.15 1.23 1.24 1.00 0.80 0.69 0.63 0.65 0.69 0.66 0.71 0.77 0.81 0.85 0.87 0.93 0.99 0.99 1.03 1.01 0.90 0.78 0.74 0.70 0.70 0.69 0.62 0.56 0.42 0.37 0.41 0.49 0.50 0.46 0.44 0.41 0.34 0.33 0.32 0.32 0.35 0.38
1.03 1.18 1.35 1.36 1.27 1.09 0.91 0.72 0.67 0.68 0.70 0.73 0.77 0.78 0.76 0.80 0.87 0.93 0.93 0.87 0.84 0.80 0.72 0.64 0.68 0.66 0.62 0.55 0.49 0.43 0.36 0.36 0.45 0.47 0.43 0.39 0.37 0.35 0.33 0.27 0.22 0.21 0.22 0.23
0.76 1.08 1.46 1.48 1.20 1.12 1.05 0.92 0.81 0.85 0.93 0.89 0.81 0.77 0.72 0.70 0.69 0.66 0.67 0.65 0.65 0.63 0.57 0.53 0.55 0.51 0.46 0.41 0.40 0.35 0.30 0.30 0.39 0.41 0.40 0.34 0.31 0.28 0.25 0.24 0.23 0.17 0.17 0.18

GEFSCGP_prec_meanprecacc_240.txt.gz
Total_Precipitation_Accumulation
0.03 0.06 0.06 0.09 0.09 0.12 0.15 0.18 0.22 0.23 0.22 0.27 0.33 0.49 0.62 0.82 0.87 0.95 1.08 1.22 1.19 1.27 1.43 1.78 2.29 3.01 3.46 3.63 3.71 3.85 3.81 3.86 3.86 3.78 3.80 4.01 4.15 4.16 4.13 4.27 4.33 4.15 4.04 4.11
0.05 0.07 0.07 0.08 0.10 0.12 0.19 0.21 0.23 0.26 0.24 0.25 0.36 0.54 0.70 0.81 0.87 0.97 1.09 1.12 1.11 1.12 1.35 1.81 2.27 2.71 3.04 3.39 3.55 3.69 3.68 3.90 4.15 4.51 4.98 5.24 5.35 5.24 5.06 4.98 4.90 4.76 4.65 4.66
0.06 0.05 0.04 0.05 0.09 0.12 0.18 0.16 0.22 0.30 0.33 0.31 0.43 0.74 0.84 0.91 1.06 1.20 1.26 1.34 1.35 1.22 1.40 1.77 2.02 2.38 2.66 3.00 3.26 3.44 3.71 4.18 4.71 5.36 6.13 6.43 6.17 5.76 5.55 5.23 5.16 4.97 4.74 4.69
0.02 0.03 0.03 0.05 0.07 0.10 0.14 0.12 0.17 0.24 0.31 0.37 0.39 0.79 1.05 1.12 1.35 1.50 1.39 1.36 1.39 1.39 1.44 1.63 1.87 2.14 2.34 2.71 3.14 3.54 3.97 4.58 5.24 5.79 6.25 6.46 6.32 6.05 5.78 5.33 4.96 4.59 4.27 4.07
0.03 0.04 0.08 0.12 0.08 0.08 0.09 0.10 0.13 0.18 0.23 0.33 0.39 0.64 1.15 1.38 1.50 1.61 1.46 1.40 1.35 1.37 1.33 1.46 1.66 1.92 2.24 2.65 3.12 3.59 4.04 4.70 5.20 5.67 6.00 6.21 6.22 6.11 5.73 5.04 4.43 4.03 3.69 3.44
0.04 0.05 0.10 0.10 0.07 0.08 0.10 0.10 0.14 0.20 0.25 0.41 0.41 0.65 1.27 1.63 1.72 1.67 1.59 1.56 1.44 1.44 1.48 1.48 1.56 1.74 2.17 2.57 3.06 3.40 3.73 4.41 5.08 5.56 5.88 6.12 6.09 5.84 5.21 4.52 3.98 3.64 3.34 3.07
0.12 0.10 0.10 0.09 0.09 0.09 0.12 0.18 0.34 0.44 0.51 0.54 0.45 0.70 1.25 1.38 1.40 1.47 1.42 1.37 1.40 1.41 1.41 1.43 1.63 1.75 2.22 2.58 2.87 3.15 3.40 3.79 4.28 4.70 4.96 5.13 5.16 4.94 4.52 4.12 3.67 3.29 3.04 2.78
0.24 0.20 0.12 0.08 0.07 0.07 0.11 0.20 0.45 0.62 0.67 0.65 0.69 1.16 1.57 1.40 1.36 1.38 1.39 1.27 1.26 1.35 1.36 1.38 1.60 1.78 1.90 2.12 2.39 2.70 2.94 3.19 3.43 3.63 3.80 3.75 3.73 3.71 3.54 3.21 2.79 2.47 2.22 2.07
0.25 0.22 0.11 0.06 0.04 0.05 0.10 0.16 0.19 0.33 0.40 0.65 0.97 1.30 1.72 1.65 1.65 1.46 1.36 1.32 1.31 1.29 1.31 1.40 1.56 1.65 1.68 1.80 2.06 2.24 2.32 2.51 2.57 2.53 2.51 2.54 2.56 2.56 2.47 2.33 2.07 1.73 1.50 1.40
0.19 0.18 0.13 0.09 0.07 0.07 0.11 0.15 0.22 0.45 0.66 0.87 1.08 1.60 2.10 2.12 1.96 1.72 1.48 1.34 1.20 1.20 1.27 1.35 1.46 1.59 1.64 1.68 1.88 1.97 1.89 1.88 1.93 1.99 1.94 1.86 1.89 1.90 1.89 1.82 1.66 1.45 1.28 1.16
0.17 0.20 0.18 0.13 0.16 0.16 0.16 0.20 0.26 0.43 0.58 0.97 1.33 1.94 2.02 2.17 2.08 1.95 1.84 1.50 1.28 1.27 1.31 1.40 1.39 1.39 1.42 1.46 1.47 1.53 1.54 1.56 1.55 1.53 1.54 1.53 1.48 1.43 1.43 1.46 1.42 1.27 1.16 1.04
0.19 0.22 0.31 0.24 0.20 0.17 0.18 0.22 0.30 0.55 0.66 0.75 1.17 1.98 1.78 2.12 2.24 2.09 1.93 1.61 1.46 1.38 1.43 1.44 1.38 1.28 1.29 1.37 1.36 1.31 1.31 1.31 1.32 1.33 1.34 1.37 1.25 1.18 1.17 1.15 1.15 1.09 1.07 1.03
0.19 0.29 0.48 0.58 0.52 0.35 0.28 0.24 0.26 0.34 0.55 0.72 1.14 1.93 1.90 2.09 2.28 2.05 1.82 1.65 1.60 1.60 1.61 1.60 1.49 1.31 1.24 1.28 1.29 1.15 1.09 1.09 1.04 1.05 1.13 1.21 1.13 1.05 1.03 0.99 0.98 1.02 1.01 0.99
0.16 0.37 0.70 1.06 0.94 0.52 0.39 0.29 0.25 0.34 0.61 0.76 1.02 1.51 1.76 1.92 1.93 1.83 1.76 1.68 1.66 1.64 1.57 1.57 1.51 1.34 1.31 1.24 1.21 1.05 0.98 0.98 0.94 0.90 0.89 0.96 1.00 0.98 0.93 0.93 0.92 0.87 0.86 0.85
0.21 0.41 0.47 0.42 0.35 0.34 0.36 0.33 0.31 0.40 0.51 0.79 1.06 1.36 1.64 1.90 1.97 1.93 1.79 1.70 1.64 1.60 1.59 1.64 1.56 1.37 1.35 1.32 1.27 1.08 0.97 0.94 0.93 0.94 0.92 0.91 0.92 0.87 0.87 0.90 0.88 0.80 0.76 0.70
0.23 0.32 0.39 0.39 0.33 0.35 0.42 0.42 0.41 0.45 0.57 0.77 1.05 1.45 1.76 2.02 2.02 1.90 1.75 1.68 1.74 1.70 1.64 1.58 1.46 1.39 1.39 1.37 1.30 1.14 1.02 0.94 0.93 1.02 1.04 1.00 0.98 0.92 0.87 0.87 0.87 0.80 0.79 0.74
0.27 0.41 0.62 0.60 0.43 0.57 0.89 0.74 0.68 0.71 0.74 0.92 1.20 1.44 1.64 1.86 1.96 1.93 1.81 1.84 1.93 1.84 1.83 1.74 1.58 1.49 1.53 1.46 1.29 1.21 1.09 1.02 1.01 1.01 0.98 1.01 1.02 0.93 0.84 0.80 0.89 0.87 0.84 0.75
0.34 0.52 0.73 0.71 0.82 1.31 1.21 0.73 0.72 0.84 0.78 0.78 0.94 1.08 1.28 1.49 1.57 1.62 1.68 1.80 1.93 1.89 1.85 1.74 1.64 1.60 1.55 1.49 1.40 1.31 1.15 1.04 0.99 0.98 0.92 0.90 0.92 0.92 0.85 0.82 0.85 0.83 0.84 0.82
0.27 0.55 0.88 0.95 1.19 1.37 1.21 0.82 0.69 0.94 1.15 0.84 0.80 0.90 1.03 1.06 1.30 1.58 1.53 1.52 1.67 1.72 1.70 1.63 1.58 1.60 1.51 1.43 1.36 1.27 1.14 1.02 0.90 0.87 0.85 0.79 0.74 0.73 0.71 0.70 0.73 0.81 0.84 0.83
0.29 0.51 0.92 1.11 1.45 1.66 1.34 0.70 0.56 0.92 1.54 1.04 0.93 0.94 1.11 1.19 1.49 1.52 1.28 1.26 1.38 1.45 1.45 1.41 1.37 1.38 1.39 1.31 1.25 1.23 1.15 1.01 0.84 0.71 0.65 0.63 0.64 0.63 0.65 0.68 0.72 0.71 0.77 0.79
0.64 0.74 0.94 1.18 1.60 1.57 0.88 0.54 0.65 1.42 1.62 1.05 1.03 1.08 1.13 1.23 1.28 1.13 1.04 1.20 1.34 1.35 1.32 1.23 1.17 1.17 1.16 1.10 1.02 1.02 0.98 0.86 0.64 0.53 0.50 0.53 0.53 0.52 0.52 0.61 0.66 0.66 0.65 0.70
0.97 1.15 1.25 1.39 1.70 1.68 0.78 0.65 1.04 1.26 0.92 0.90 0.96 0.95 0.97 0.89 0.83 0.90 0.99 1.18 1.29 1.31 1.27 1.15 1.07 0.98 0.92 0.86 0.90 0.89 0.76 0.58 0.47 0.45 0.45 0.46 0.45 0.38 0.39 0.54 0.57 0.58 0.64 0.62
1.06 1.29 1.39 1.52 1.65 1.26 0.76 0.74 0.76 0.78 0.81 0.78 0.82 0.81 0.80 0.81 0.80 0.88 1.00 1.10 1.21 1.18 1.10 0.97 0.86 0.78 0.72 0.76 0.80 0.75 0.59 0.46 0.41 0.45 0.49 0.45 0.39 0.38 0.37 0.43 0.46 0.48 0.56 0.54
1.15 1.09 1.15 1.24 1.25 1.00 0.81 0.70 0.65 0.66 0.70 0.67 0.71 0.77 0.81 0.85 0.87 0.94 0.99 0.99 1.03 1.01 0.90 0.79 0.75 0.71 0.71 0.70 0.62 0.56 0.43 0.38 0.42 0.50 0.50 0.46 0.44 0.41 0.34 0.34 0.32 0.33 0.36 0.39
1.03 1.18 1.35 1.36 1.27 1.09 0.91 0.73 0.69 0.70 0.71 0.74 0.78 0.79 0.76 0.81 0.87 0.93 0.93 0.87 0.85 0.80 0.73 0.65 0.69 0.67 0.64 0.56 0.50 0.44 0.38 0.37 0.46 0.47 0.43 0.40 0.38 0.36 0.33 0.27 0.22 0.21 0.23 0.25
0.76 1.08 1.46 1.49 1.20 1.13 1.06 0.93 0.82 0.87 0.95 0.92 0.83 0.78 0.74 0.71 0.69 0.66 0.67 0.65 0.65 0.64 0.57 0.53 0.56 0.54 0.48 0.43 0.41 0.36 0.31 0.30 0.39 0.42 0.40 0.34 0.32 0.29 0.25 0.25 0.23 0.18 0.18 0.19

GEFSCGP_prec_meanprecacc_246.txt.gz
Total_Precipitation_Accumulation
0.03 0.06 0.07 0.09 0.09 0.12 0.15 0.19 0.22 0.23 0.22 0.27 0.33 0.50 0.63 0.83 0.88 0.96 1.08 1.23 1.20 1.29 1.46 1.82 2.36 3.06 3.50 3.67 3.74 3.88 3.84 3.88 3.90 3.82 3.84 4.04 4.20 4.22 4.20 4.33 4.38 4.21 4.10 4.17
0.05 0.07 0.07 0.08 0.10 0.12 0.19 0.21 0.23 0.26 0.24 0.26 0.36 0.55 0.72 0.83 0.88 0.97 1.10 1.13 1.12 1.14 1.37 1.83 2.31 2.79 3.10 3.43 3.59 3.72 3.71 3.93 4.18 4.53 5.00 5.27 5.39 5.31 5.13 5.04 4.95 4.82 4.71 4.73
0.06 0.05 0.04 0.05 0.09 0.12 0.18 0.16 0.22 0.31 0.33 0.32 0.43 0.74 0.85 0.93 1.07 1.21 1.27 1.35 1.36 1.23 1.41 1.79 2.05 2.42 2.70 3.04 3.31 3.50 3.76 4.22 4.74 5.39 6.16 6.46 6.21 5.82 5.61 5.29 5.22 5.02 4.79 4.74
0.02 0.03 0.03 0.05 0.07 0.10 0.14 0.12 0.17 0.25 0.32 0.38 0.39 0.80 1.06 1.13 1.35 1.51 1.39 1.36 1.40 1.39 1.44 1.64 1.89 2.16 2.37 2.74 3.18 3.59 4.03 4.62 5.27 5.82 6.28 6.50 6.37 6.11 5.83 5.39 5.02 4.64 4.31 4.12
0.03 0.04 0.08 0.12 0.08 0.08 0.10 0.10 0.13 0.18 0.23 0.33 0.40 0.65 1.15 1.39 1.51 1.61 1.47 1.41 1.35 1.37 1.34 1.48 1.67 1.94 2.26 2.68 3.14 3.63 4.09 4.75 5.24 5.70 6.04 6.24 6.26 6.14 5.77 5.10 4.48 4.08 3.75 3.49
0.04 0.05 0.10 0.10 0.07 0.08 0.10 0.10 0.14 0.20 0.26 0.41 0.42 0.66 1.28 1.64 1.73 1.67 1.60 1.56 1.45 1.45 1.49 1.50 1.58 1.76 2.20 2.59 3.08 3.42 3.76 4.45 5.12 5.59 5.92 6.16 6.12 5.88 5.25 4.56 4.03 3.69 3.40 3.12
0.12 0.10 0.10 0.09 0.09 0.09 0.12 0.18 0.34 0.44 0.52 0.55 0.45 0.70 1.26 1.39 1.40 1.48 1.43 1.37 1.41 1.42 1.42 1.45 1.65 1.77 2.25 2.61 2.90 3.17 3.41 3.81 4.31 4.73 5.01 5.18 5.22 5.01 4.58 4.16 3.71 3.35 3.10 2.83
0.24 0.20 0.12 0.08 0.07 0.07 0.11 0.20 0.45 0.62 0.67 0.65 0.69 1.17 1.58 1.41 1.36 1.38 1.39 1.27 1.27 1.36 1.37 1.40 1.62 1.83 1.97 2.19 2.43 2.73 2.96 3.21 3.46 3.66 3.84 3.81 3.80 3.78 3.59 3.25 2.84 2.53 2.27 2.12
0.25 0.22 0.11 0.06 0.04 0.05 0.10 0.16 0.19 0.33 0.40 0.65 0.97 1.30 1.72 1.66 1.65 1.47 1.36 1.32 1.32 1.30 1.33 1.42 1.60 1.72 1.78 1.89 2.10 2.28 2.36 2.55 2.61 2.57 2.56 2.61 2.61 2.61 2.51 2.37 2.10 1.77 1.54 1.43
0.19 0.18 0.13 0.09 0.07 0.07 0.11 0.15 0.22 0.45 0.67 0.87 1.08 1.60 2.11 2.13 1.96 1.72 1.48 1.34 1.21 1.22 1.29 1.37 1.50 1.64 1.72 1.75 1.94 2.02 1.94 1.94 1.99 2.03 1.98 1.90 1.92 1.93 1.92 1.85 1.68 1.48 1.32 1.20
0.17 0.20 0.18 0.13 0.16 0.17 0.17 0.20 0.26 0.44 0.58 0.97 1.33 1.95 2.03 2.17 2.09 1.95 1.85 1.51 1.29 1.28 1.33 1.42 1.41 1.41 1.45 1.49 1.53 1.59 1.58 1.60 1.58 1.56 1.58 1.55 1.50 1.45 1.45 1.48 1.44 1.30 1.19 1.07
0.20 0.22 0.31 0.24 0.20 0.17 0.19 0.22 0.30 0.55 0.67 0.75 1.17 1.99 1.78 2.13 2.24 2.10 1.94 1.61 1.47 1.40 1.44 1.46 1.40 1.29 1.30 1.41 1.41 1.37 1.35 1.34 1.35 1.36 1.37 1.40 1.27 1.20 1.19 1.17 1.17 1.11 1.09 1.05
0.19 0.29 0.48 0.58 0.53 0.35 0.28 0.24 0.27 0.35 0.55 0.72 1.14 1.94 1.91 2.09 2.28 2.06 1.82 1.66 1.61 1.62 1.63 1.63 1.52 1.33 1.26 1.32 1.33 1.20 1.14 1.14 1.07 1.09 1.16 1.23 1.15 1.06 1.05 1.01 1.01 1.04 1.03 1.01
0.16 0.37 0.70 1.07 0.94 0.53 0.39 0.29 0.26 0.35 0.61 0.76 1.03 1.51 1.77 1.93 1.95 1.84 1.77 1.69 1.68 1.66 1.60 1.63 1.57 1.37 1.35 1.28 1.24 1.09 1.03 1.02 0.97 0.93 0.92 0.98 1.02 0.99 0.96 0.96 0.95 0.91 0.88 0.87
0.21 0.41 0.47 0.42 0.35 0.35 0.37 0.33 0.32 0.40 0.51 0.79 1.06 1.36 1.64 1.91 1.98 1.95 1.80 1.70 1.64 1.61 1.61 1.68 1.61 1.39 1.38 1.36 1.31 1.12 0.99 0.97 0.95 0.96 0.93 0.92 0.94 0.89 0.89 0.93 0.92 0.82 0.79 0.73
0.23 0.32 0.39 0.39 0.33 0.35 0.42 0.42 0.42 0.47 0.57 0.78 1.05 1.45 1.76 2.02 2.03 1.91 1.76 1.68 1.74 1.71 1.65 1.60 1.48 1.41 1.41 1.39 1.33 1.17 1.03 0.95 0.94 1.04 1.06 1.02 1.01 0.95 0.90 0.90 0.89 0.83 0.82 0.76
0.27 0.41 0.62 0.60 0.43 0.57 0.89 0.74 0.69 0.72 0.74 0.93 1.20 1.44 1.64 1.86 1.96 1.93 1.81 1.84 1.94 1.85 1.84 1.75 1.60 1.51 1.55 1.48 1.32 1.23 1.10 1.03 1.02 1.04 1.00 1.03 1.05 0.96 0.87 0.82 0.91 0.90 0.87 0.77
0.34 0.52 0.73 0.71 0.83 1.32 1.22 0.74 0.73 0.84 0.79 0.78 0.94 1.08 1.28 1.49 1.58 1.62 1.68 1.80 1.93 1.89 1.85 1.75 1.65 1.61 1.57 1.51 1.42 1.33 1.17 1.05 1.01 0.99 0.94 0.92 0.95 0.95 0.87 0.84 0.86 0.85 0.86 0.84
0.27 0.55 0.89 0.95 1.20 1.38 1.23 0.83 0.70 0.94 1.15 0.84 0.80 0.90 1.03 1.06 1.30 1.58 1.53 1.52 1.67 1.72 1.70 1.64 1.59 1.62 1.53 1.44 1.37 1.29 1.16 1.02 0.91 0.88 0.87 0.81 0.78 0.76 0.73 0.72 0.75 0.83 0.86 0.86
0.29 0.51 0.92 1.12 1.46 1.68 1.37 0.72 0.57 0.93 1.55 1.04 0.93 0.94 1.11 1.19 1.49 1.52 1.28 1.26 1.38 1.45 1.45 1.41 1.38 1.40 1.41 1.32 1.26 1.24 1.17 1.03 0.85 0.73 0.66 0.65 0.66 0.66 0.68 0.70 0.73 0.73 0.79 0.82
0.65 0.75 0.94 1.19 1.61 1.58 0.90 0.55 0.67 1.45 1.63 1.06 1.03 1.09 1.14 1.23 1.28 1.13 1.04 1.20 1.34 1.35 1.33 1.23 1.18 1.18 1.18 1.11 1.03 1.03 1.00 0.88 0.66 0.54 0.51 0.55 0.55 0.55 0.55 0.64 0.68 0.67 0.67 0.72
0.97 1.15 1.26 1.40 1.70 1.68 0.78 0.66 1.05 1.28 0.93 0.90 0.97 0.96 0.97 0.89 0.84 0.90 0.99 1.18 1.30 1.32 1.28 1.15 1.08 1.00 0.94 0.87 0.91 0.90 0.77 0.60 0.48 0.46 0.46 0.47 0.46 0.40 0.41 0.56 0.58 0.59 0.66 0.64
1.06 1.29 1.39 1.52 1.65 1.26 0.76 0.75 0.77 0.79 0.82 0.78 0.83 0.81 0.81 0.81 0.81 0.88 1.01 1.10 1.21 1.19 1.11 0.97 0.87 0.79 0.73 0.77 0.82 0.76 0.60 0.47 0.42 0.46 0.50 0.46 0.40 0.39 0.38 0.44 0.47 0.49 0.57 0.56
1.15 1.09 1.15 1.24 1.25 1.01 0.81 0.70 0.66 0.67 0.70 0.67 0.72 0.78 0.82 0.86 0.88 0.94 0.99 0.99 1.04 1.01 0.91 0.80 0.76 0.72 0.72 0.71 0.63 0.57 0.43 0.39 0.43 0.51 0.51 0.48 0.46 0.43 0.35 0.34 0.33 0.33 0.36 0.40
1.03 1.19 1.36 1.37 1.27 1.10 0.92 0.73 0.69 0.70 0.71 0.74 0.79 0.79 0.77 0.81 0.88 0.94 0.94 0.88 0.85 0.80 0.73 0.66 0.71 0.69 0.65 0.57 0.51 0.44 0.38 0.37 0.47 0.49 0.44 0.41 0.39 0.37 0.34 0.27 0.22 0.22 0.23 0.25
0.76 1.08 1.47 1.50 1.21 1.13 1.06 0.94 0.83 0.87 0.95 0.93 0.84 0.79 0.74 0.71 0.70 0.67 0.67 0.66 0.65 0.64 0.58 0.55 0.58 0.55 0.48 0.44 0.42 0.36 0.31 0.31 0.40 0.43 0.42 0.35 0.33 0.30 0.26 0.25 0.23 0.18 0.18 0.20